GFSWCAN_925_spd_078.txt.gz
Wind_Speed
19 23 25 26 28 28 30 29 29 14 7 9 6 12 12 10 12 11 14 15 4 3 3 3 4 3 3 2 4 2 3 3 3 3 2 1 2 2 2 2 3 4 4 2 2 2 6 2 2 3 2 2 2 2
19 21 23 24 25 26 26 25 25 7 7 6 5 8 9 9 7 7 8 11 13 5 3 3 10 13 4 1 3 2 3 1 2 4 1 2 1 1 3 2 1 1 4 3 6 4 0 1 1 1 2 4 3 2
19 20 22 22 23 23 23 22 22 6 6 3 5 6 7 6 1 4 6 9 6 3 3 4 4 8 13 8 1 3 1 2 1 1 3 2 2 3 3 4 2 2 2 1 1 1 2 2 1 1 2 3 2 2
16 19 20 23 23 21 20 16 15 3 2 2 7 5 6 7 6 2 5 5 3 3 3 2 6 4 12 6 1 1 4 4 5 2 2 2 2 1 2 1 2 3 3 3 4 3 2 5 4 3 3 2 2 1
15 17 19 19 22 19 17 13 10 9 2 4 7 8 6 8 8 5 3 4 4 3 3 1 3 7 11 11 12 9 7 3 3 2 3 1 1 2 1 1 3 4 5 4 4 3 2 2 3 4 2 1 2 2
16 18 18 19 16 18 17 13 10 8 7 6 7 7 6 9 12 7 3 2 4 4 4 2 3 4 8 8 14 12 7 3 3 3 1 0 1 2 2 3 2 2 2 3 2 3 2 3 4 3 1 1 2 3
14 16 19 19 17 15 15 14 15 9 11 9 9 8 7 10 8 4 3 0 2 2 3 2 3 3 4 4 3 3 5 3 3 2 2 1 0 2 1 3 2 4 3 1 2 3 1 2 1 2 1 3 5 6
16 15 16 17 16 12 11 15 8 18 14 11 9 8 7 6 5 3 3 5 3 7 3 3 1 3 3 2 2 3 2 2 4 2 1 1 0 1 3 4 3 4 3 1 2 2 2 3 3 1 2 3 5 6
17 16 15 14 13 8 5 8 16 15 14 12 10 9 5 2 2 3 7 4 5 3 3 2 4 3 2 1 1 2 2 2 1 1 0 1 1 4 4 5 5 6 4 2 4 3 3 1 2 3 2 4 4 6
17 17 15 14 10 7 4 6 17 16 14 13 9 1 1 2 11 9 2 3 4 3 2 2 1 2 3 0 1 2 2 1 1 1 0 2 3 2 3 4 4 6 5 5 3 1 1 3 3 5 4 5 5 6
17 17 15 15 11 9 8 9 19 20 12 4 1 1 3 10 3 2 1 2 0 2 1 2 3 3 1 2 2 1 2 1 2 2 2 2 3 3 4 4 4 5 5 3 3 2 3 5 4 4 6 6 11 13
17 17 16 14 13 12 13 14 27 21 8 4 6 5 4 2 3 3 2 1 2 4 2 4 4 3 2 2 3 1 2 2 2 2 3 3 3 3 5 5 5 4 4 3 4 5 6 7 8 8 9 11 15 17
19 19 18 17 16 17 19 19 31 20 10 4 1 2 2 1 3 6 7 4 3 5 5 4 3 3 2 1 3 3 3 2 2 2 3 4 3 3 6 2 4 5 4 3 5 6 8 10 10 10 11 12 13 15
19 19 19 19 18 23 24 25 28 23 4 1 2 4 5 3 5 5 4 4 2 4 7 3 3 3 2 3 3 4 2 2 2 0 5 3 5 4 5 3 3 3 4 5 7 11 11 12 13 14 13 15 15 16
19 18 18 16 20 25 28 23 30 20 4 2 2 5 6 2 2 1 2 2 1 6 4 3 3 3 1 3 2 4 3 3 5 4 3 3 3 4 5 3 3 4 4 5 10 10 15 15 13 18 20 17 19 23
17 17 18 21 22 27 31 26 14 6 1 2 2 2 2 2 1 2 2 2 2 4 2 2 3 3 1 4 3 5 7 6 4 3 3 1 3 4 3 1 2 4 6 10 14 14 17 17 17 20 22 24 26 21
17 9 16 24 28 32 29 15 4 3 5 4 3 3 2 3 2 3 3 4 6 3 3 3 4 6 3 2 2 3 5 3 3 2 1 3 4 4 2 2 4 7 8 10 13 16 17 19 18 18 10 20 21 20
13 16 21 29 33 32 7 6 4 4 5 3 2 2 2 1 2 1 2 5 4 3 3 4 4 3 5 6 3 3 3 1 1 2 3 4 4 4 4 3 6 8 10 14 16 17 17 17 13 11 16 19 20 20
19 20 22 36 38 14 4 5 5 5 4 3 2 1 1 1 1 2 3 3 2 3 5 2 3 3 3 3 3 3 2 2 3 3 3 5 6 4 4 6 8 10 14 16 15 13 16 16 15 16 16 17 15 16
29 34 39 27 28 5 4 2 5 3 4 2 2 3 2 0 1 1 2 2 2 2 2 2 4 3 3 3 3 3 3 4 4 3 2 2 2 3 6 7 8 10 13 16 15 13 12 13 13 17 17 19 18 17
32 36 33 17 4 5 2 3 2 3 3 2 2 2 2 1 0 1 1 1 2 3 2 3 2 0 2 5 10 13 7 6 3 3 3 1 2 3 5 8 10 9 8 8 7 9 12 12 16 17 17 17 18 19
16 28 7 6 3 2 2 1 3 3 2 2 2 2 2 2 1 2 1 1 3 3 3 3 2 2 4 5 4 13 14 15 12 10 7 4 2 1 2 7 10 7 8 7 8 10 13 15 17 16 17 18 19 19
31 13 5 4 3 2 2 1 3 0 4 4 1 3 1 1 2 1 2 2 2 2 2 2 4 5 9 10 15 13 9 11 8 7 5 4 3 3 5 9 8 7 7 7 13 14 15 16 16 17 17 17 17 18
20 5 3 4 3 3 4 3 2 3 2 3 3 2 2 2 1 0 3 2 2 2 2 4 10 5 4 6 3 4 6 8 9 5 3 3 3 3 5 6 5 5 4 8 13 14 15 16 17 17 17 17 19 17
7 5 5 4 3 5 4 4 3 3 4 4 4 3 3 2 2 3 4 3 2 3 4 4 1 2 4 2 3 6 9 6 5 2 2 4 4 3 4 5 5 5 3 14 15 15 17 18 18 18 19 17 18 17
5 5 8 7 3 6 7 6 7 6 5 4 3 3 2 2 3 6 4 7 5 5 9 10 7 4 2 4 4 4 10 8 4 4 5 3 2 3 2 0 2 5 9 12 14 16 18 18 17 19 18 19 19 20
6 5 3 3 3 4 4 3 2 4 5 6 5 4 4 4 7 4 1 2 3 8 20 20 21 11 9 11 13 13 11 7 3 4 4 4 4 5 4 2 4 9 12 14 13 14 17 18 17 18 18 19 18 17
3 6 8 5 4 2 6 5 5 6 4 4 7 6 8 8 5 2 2 6 12 28 26 21 15 19 23 20 17 15 11 7 7 7 7 6 3 7 1 8 8 9 10 11 12 15 15 15 17 16 18 17 16 14
3 2 4 2 2 3 1 4 4 2 3 6 6 4 4 1 1 2 2 15 24 31 21 18 20 24 23 18 13 10 9 10 11 3 2 2 2 4 3 8 9 7 9 12 12 10 11 11 12 12 12 12 12 11
2 2 3 3 2 3 1 1 3 2 2 3 4 2 2 2 5 1 15 20 19 18 20 25 30 25 19 17 12 8 9 9 6 6 4 4 5 1 3 6 6 8 10 12 13 13 11 11 11 11 11 12 13 15
3 2 2 4 3 1 1 1 3 3 1 3 3 2 2 2 4 4 6 9 22 29 26 20 18 19 20 16 12 10 4 11 9 7 8 9 5 4 5 5 7 9 11 13 13 13 13 13 14 14 14 14 14 14
2 5 5 4 2 1 1 2 2 2 2 3 2 1 1 2 2 3 12 16 20 16 18 24 21 21 15 12 9 7 6 11 14 10 10 8 5 5 4 3 6 8 10 10 12 12 12 12 12 13 13 14 15 15
3 2 3 5 3 3 2 2 2 3 3 3 2 1 1 2 5 5 15 18 20 23 28 26 20 19 15 11 9 10 11 11 11 9 8 5 1 3 5 2 3 6 9 9 10 10 10 10 10 11 12 13 15 15

GFSWCAN_925_spd_081.txt.gz
Wind_Speed
16 18 18 19 22 25 25 24 23 11 11 8 11 13 12 11 10 13 13 9 4 3 2 2 3 3 2 1 3 3 3 3 3 3 2 2 2 2 1 1 2 4 3 2 1 1 5 1 2 2 3 0 2 2
15 15 16 17 20 22 22 22 20 7 9 7 4 4 3 6 10 5 7 10 13 5 3 3 6 8 3 2 2 2 3 1 3 4 1 2 1 1 3 2 0 2 4 3 6 4 1 1 1 1 3 4 3 2
16 13 14 15 19 20 19 17 16 7 8 7 5 4 2 1 5 9 9 7 7 4 3 3 3 5 9 4 1 3 2 2 2 1 3 2 2 3 3 4 1 2 2 2 1 2 4 3 1 2 1 2 3 1
16 12 12 13 13 16 16 16 11 10 6 7 3 3 2 2 5 2 5 7 6 4 3 2 4 2 10 5 1 2 3 4 5 2 2 2 2 2 2 2 3 3 4 3 4 4 2 4 4 4 3 3 2 0
15 13 12 13 13 14 13 13 11 7 5 5 3 1 1 1 2 3 8 7 4 3 3 2 2 4 9 9 8 6 5 3 2 2 2 1 1 2 0 1 3 5 5 4 4 1 2 1 2 5 5 2 2 1
12 11 12 13 14 14 14 12 8 8 6 5 4 1 2 1 4 4 3 4 5 3 4 2 3 4 6 6 11 10 5 3 2 3 2 1 1 2 2 3 3 3 2 2 3 2 3 3 4 3 4 2 1 2
11 11 12 11 12 12 14 12 12 9 5 4 4 3 2 3 2 2 2 2 4 2 3 2 2 2 3 3 3 3 4 2 2 2 1 2 1 2 2 4 3 5 5 4 3 5 2 3 3 5 2 1 2 3
11 10 12 12 11 10 10 11 15 6 12 7 3 2 2 2 2 2 3 4 3 7 3 3 2 2 1 1 1 2 2 2 4 2 1 1 1 1 3 5 3 4 5 4 4 2 3 4 4 3 0 1 3 5
12 9 11 11 9 9 8 6 5 12 10 8 5 3 3 2 1 0 5 3 3 2 3 2 4 3 1 1 1 1 1 2 1 1 1 2 1 4 6 5 6 6 5 5 5 4 4 3 3 2 2 3 3 6
13 10 10 11 9 6 4 2 12 11 10 9 6 2 3 3 4 5 1 2 4 3 3 2 1 2 2 0 1 2 2 1 1 1 1 2 4 4 3 4 4 7 6 7 4 2 2 2 4 4 5 4 5 5
13 11 10 10 8 6 6 5 14 16 11 1 2 1 2 2 1 3 1 2 1 2 2 2 3 3 2 3 2 1 2 0 2 3 2 2 3 3 3 4 4 5 6 5 3 2 2 4 5 5 6 7 9 10
14 12 12 12 10 8 8 10 20 16 9 4 5 3 1 2 3 2 3 2 3 5 2 4 4 3 2 1 3 1 3 2 3 2 2 3 4 3 5 5 5 5 6 4 2 3 5 8 9 8 10 12 14 14
15 13 13 13 11 10 10 13 22 16 14 3 2 3 2 1 1 5 6 4 2 5 4 4 3 3 2 1 3 2 3 3 2 1 3 4 3 2 6 4 5 5 4 1 3 4 7 11 12 11 13 17 17 17
16 14 15 16 14 13 13 16 22 18 6 2 2 2 5 3 5 5 3 2 1 3 7 3 3 2 2 3 2 4 1 3 2 2 6 3 5 4 6 4 5 4 2 2 5 8 10 11 14 18 17 19 20 20
14 15 17 17 16 14 18 23 25 9 3 3 3 5 6 3 2 2 2 1 1 4 5 4 3 2 1 3 2 3 3 4 5 5 3 3 3 5 6 4 4 2 1 2 4 6 12 15 13 17 21 20 21 23
13 12 18 18 14 18 26 30 17 3 2 2 1 1 3 1 2 1 1 2 2 5 1 2 3 2 2 4 3 7 6 6 4 3 2 3 4 5 5 5 4 3 2 4 7 9 12 13 14 16 20 19 19 20
14 7 12 13 19 25 34 15 5 3 4 5 4 3 2 1 3 2 3 3 4 2 3 3 5 6 3 2 3 4 5 3 3 2 2 4 6 6 6 6 6 5 5 6 9 11 12 13 14 14 9 18 22 23
11 12 17 19 29 35 7 6 5 4 6 3 2 3 2 2 3 1 2 2 3 2 2 4 4 3 5 5 4 3 3 1 1 2 3 5 5 9 8 7 6 5 5 7 8 10 11 13 11 10 14 18 19 19
18 18 19 30 29 8 3 3 5 4 5 3 2 1 2 1 2 2 2 4 1 1 3 1 2 3 4 4 3 3 3 3 4 3 3 6 10 10 9 8 6 5 6 7 8 8 9 12 13 15 15 16 15 17
24 17 26 37 31 5 3 1 3 3 4 3 1 1 2 1 2 3 3 2 1 0 2 3 4 3 3 2 3 3 3 5 6 4 3 3 7 10 8 6 4 5 5 6 7 9 11 12 14 15 15 16 16 16
20 21 34 32 5 3 2 4 2 3 3 3 2 3 1 1 2 3 3 2 1 3 3 3 3 1 0 1 7 11 7 6 4 4 4 3 5 8 7 5 4 4 4 5 6 9 11 9 13 14 14 15 15 17
13 31 8 10 3 2 2 4 3 2 2 2 2 3 2 2 2 3 3 2 3 4 3 2 2 2 3 4 4 11 17 19 18 15 14 14 3 2 3 3 4 3 3 3 6 7 10 13 13 12 14 15 17 19
29 13 6 5 3 3 3 5 3 4 3 5 2 3 2 2 1 1 2 3 3 2 3 2 3 2 6 10 17 16 16 20 8 11 12 10 8 6 6 5 4 4 3 2 8 9 11 12 12 13 15 16 16 17
15 6 5 6 4 5 4 3 2 3 3 3 4 3 3 3 3 2 4 3 2 3 3 5 8 4 4 3 2 3 9 16 18 13 10 11 8 4 4 4 4 3 2 3 8 9 11 13 12 14 15 16 16 15
6 7 7 6 4 6 4 4 3 3 4 4 5 2 3 3 3 4 4 3 4 5 6 6 5 5 5 2 2 8 13 16 13 4 8 8 10 8 6 5 3 3 1 6 8 10 12 13 13 14 16 14 16 14
7 7 8 7 4 6 7 7 8 7 4 5 5 2 3 3 3 6 4 6 5 7 10 12 11 6 3 3 6 4 13 14 12 8 11 10 9 9 6 3 1 2 2 5 7 9 12 13 14 14 15 16 15 16
7 6 4 0 5 6 3 2 3 4 6 7 5 5 4 5 7 5 1 2 4 10 24 24 21 12 9 10 13 14 18 13 6 7 10 10 9 7 6 6 6 3 3 6 8 8 11 13 13 14 15 16 14 12
3 6 9 7 3 1 6 4 6 7 5 4 6 6 9 9 6 2 2 2 10 24 26 25 21 22 24 26 26 25 18 14 13 13 12 9 9 9 5 3 1 3 5 5 6 8 9 9 12 12 13 14 13 11
3 4 7 4 3 2 4 5 6 4 4 7 8 4 4 1 1 0 1 9 18 27 21 18 18 26 27 25 23 15 18 22 16 5 5 3 2 11 11 5 2 1 3 5 4 5 5 5 8 8 7 9 9 10
4 1 5 3 6 5 3 2 1 1 1 1 2 2 1 0 2 1 8 13 16 15 19 22 26 25 20 17 15 13 17 19 11 7 4 4 7 11 9 5 5 2 3 5 6 6 5 6 6 7 8 10 12 14
4 3 4 3 3 1 1 0 1 1 1 2 3 2 2 2 1 4 8 9 17 23 23 19 16 20 23 18 15 11 7 16 13 10 9 14 14 11 10 8 6 4 4 5 6 6 7 8 9 10 12 14 14 14
2 3 5 4 2 1 1 1 2 1 1 2 1 2 1 2 1 2 11 17 18 16 19 21 19 19 24 21 19 12 9 19 21 18 17 15 13 11 9 8 6 4 4 5 6 6 7 8 9 11 12 13 14 15
3 2 3 4 3 2 3 3 2 2 1 2 1 2 1 2 4 3 13 20 17 16 21 25 24 26 22 18 15 14 14 20 20 20 19 14 8 6 6 7 6 4 4 4 5 6 7 7 8 9 10 11 12 13

GFSWCAN_925_spd_084.txt.gz
Wind_Speed
16 18 17 14 16 18 20 21 20 10 13 8 8 10 12 15 14 12 10 9 3 3 3 1 1 0 1 1 1 3 2 2 1 1 1 1 1 1 2 1 1 2 1 1 1 2 1 3 2 3 3 2 4 4
13 15 16 11 13 14 16 14 13 8 9 10 9 10 9 11 16 8 5 8 12 6 3 2 4 5 2 2 1 0 2 0 1 2 2 2 2 2 1 2 2 3 2 1 3 1 2 2 1 1 0 1 3 3
11 14 14 11 12 13 13 13 12 7 7 8 6 8 7 7 9 8 5 3 5 3 2 2 1 1 3 3 3 1 1 1 2 1 2 1 2 2 2 3 2 3 3 3 3 3 5 4 2 2 2 2 2 2
11 11 12 9 12 12 12 12 9 7 8 7 3 5 6 7 6 5 4 2 3 4 2 2 3 1 5 3 4 4 2 2 3 1 1 1 2 2 1 1 3 1 5 3 4 5 2 6 6 4 4 3 3 2
12 10 10 7 11 12 12 12 11 7 5 5 3 3 4 4 3 4 4 5 3 2 2 2 2 2 6 5 3 3 3 1 1 1 1 1 1 2 1 2 4 6 5 5 3 3 0 2 0 6 6 4 2 2
11 10 10 6 10 12 12 12 11 7 5 5 5 2 4 3 2 3 2 4 4 2 2 2 2 2 3 3 6 6 4 2 1 0 1 1 1 1 2 3 3 7 4 2 1 2 1 3 3 4 4 3 3 3
12 10 10 7 9 10 11 13 11 9 8 6 5 3 3 4 4 1 0 4 4 3 0 2 1 1 2 2 1 1 3 2 1 1 1 1 2 2 2 5 2 7 6 5 3 6 2 4 2 5 3 3 2 3
13 11 10 7 8 8 10 12 13 9 9 6 3 2 1 5 4 2 4 1 3 2 2 2 0 1 1 1 1 2 1 1 2 1 1 2 2 1 5 7 3 6 6 5 6 2 2 5 5 4 3 3 5 6
15 13 11 8 8 6 7 6 2 10 9 5 3 2 2 1 2 2 1 3 2 2 1 1 3 3 1 1 0 1 1 2 1 2 2 2 3 6 6 6 9 10 7 7 7 4 4 4 4 4 4 5 8 8
17 14 13 10 9 6 4 3 9 9 9 6 1 1 1 5 3 3 2 2 1 1 0 3 1 3 2 1 1 1 1 1 2 1 2 3 4 10 5 4 5 10 7 10 5 3 4 3 6 5 8 8 7 8
18 16 14 12 10 7 6 6 13 13 8 2 1 1 1 5 1 3 1 1 1 3 3 1 2 3 2 2 3 2 2 1 2 2 2 3 4 3 4 7 4 9 9 6 2 3 2 2 3 5 8 9 10 12
20 18 17 15 12 10 9 10 19 13 6 4 3 3 1 1 3 2 1 2 3 3 1 2 3 1 2 1 2 2 2 1 3 3 2 3 4 3 6 6 7 8 8 6 4 3 2 4 5 8 9 11 13 14
22 20 19 17 15 12 12 14 19 10 11 4 1 2 1 1 3 4 4 2 2 2 3 2 2 2 2 1 3 2 4 3 3 2 4 4 1 4 7 6 7 7 7 6 3 1 3 6 7 7 12 13 14 16
24 22 19 19 17 14 13 15 19 16 4 1 2 4 4 4 5 5 3 2 0 1 5 3 1 1 1 3 2 3 2 3 3 3 6 2 7 7 8 7 7 7 5 4 2 2 3 6 9 10 9 11 13 15
26 23 21 22 19 17 14 19 22 12 4 3 3 5 6 2 1 1 3 1 3 3 4 3 1 1 1 2 2 3 4 5 6 5 2 2 6 7 8 7 7 7 4 3 1 2 4 6 7 11 11 12 12 13
25 20 23 26 23 19 15 31 15 5 2 3 3 2 2 1 1 3 3 2 4 5 1 1 1 2 5 3 4 8 5 6 3 3 2 6 7 7 8 7 5 6 6 4 2 2 5 6 7 10 11 10 13 14
28 10 19 29 25 17 36 16 6 4 5 5 4 2 1 0 2 2 3 3 7 4 3 2 4 4 2 2 4 5 5 2 1 2 3 6 8 9 8 7 7 6 5 3 2 3 4 6 8 7 10 13 14 13
15 24 21 25 25 38 8 6 5 5 8 4 3 4 3 2 3 2 3 4 5 3 2 3 2 3 4 4 4 3 2 1 2 4 5 7 7 9 9 8 8 7 5 3 3 3 4 7 7 8 10 12 13 14
26 27 24 34 32 9 3 3 5 5 7 3 2 2 2 1 1 3 4 6 4 2 3 2 2 3 4 4 3 2 3 3 5 4 3 7 9 10 10 10 9 6 5 3 3 3 3 4 5 8 9 11 12 12
26 24 28 40 33 5 4 3 4 3 4 4 2 4 3 2 3 3 4 5 4 3 3 3 5 3 3 2 2 2 4 6 8 6 4 3 6 10 8 7 5 6 6 4 2 3 3 4 5 7 8 11 10 11
24 22 27 35 5 5 3 4 3 3 3 4 3 5 3 2 3 4 4 4 3 4 5 5 4 3 2 4 6 4 7 9 6 4 5 5 7 7 6 5 5 5 4 4 1 1 3 5 7 8 10 10 9 11
15 26 7 8 3 2 1 5 3 4 3 1 4 2 3 3 4 4 4 4 4 4 5 4 3 3 2 2 2 5 12 11 11 12 13 18 5 4 5 6 6 4 4 4 2 2 4 5 7 8 9 10 10 11
23 16 6 5 3 4 3 9 4 5 4 5 3 3 2 3 3 2 4 4 4 3 3 2 4 6 5 6 8 10 13 15 7 9 11 9 9 9 9 7 7 7 5 4 1 2 3 6 6 8 8 9 9 11
15 6 6 6 5 5 5 4 3 4 3 3 4 4 4 3 4 3 4 3 3 3 5 8 7 5 4 5 4 4 10 13 12 12 14 12 7 6 7 7 7 6 5 4 1 1 4 5 6 6 7 8 9 11
5 7 6 6 4 5 5 6 5 4 5 5 6 3 4 3 4 5 4 3 4 5 7 7 8 8 8 7 4 8 14 18 11 5 12 11 10 9 6 6 6 7 7 3 1 2 4 6 6 6 7 7 10 11
7 8 12 12 6 7 8 7 8 6 4 4 7 2 2 4 4 7 4 5 6 7 10 12 12 9 7 8 9 6 15 20 14 6 11 16 17 11 7 5 4 6 6 2 2 4 5 6 6 7 7 9 10 11
7 6 4 2 4 5 4 2 3 4 6 7 5 5 4 6 8 4 2 3 4 7 23 27 26 14 12 12 19 18 23 21 13 8 11 16 12 9 12 10 8 7 6 4 5 6 7 8 7 7 8 10 9 8
3 6 8 7 3 2 6 4 6 8 5 4 6 6 9 9 7 3 2 3 4 9 19 21 21 22 24 26 31 31 24 19 18 17 15 12 10 10 9 8 8 6 3 5 5 6 8 7 7 8 8 9 9 8
4 4 6 4 2 4 5 6 7 5 6 7 8 7 5 3 1 2 1 2 10 18 13 14 14 26 27 30 32 30 30 30 18 7 7 4 4 15 15 9 6 4 4 5 5 6 5 3 5 5 6 6 6 7
6 5 4 3 7 6 4 3 4 3 2 2 1 2 1 1 1 2 4 9 11 7 13 16 19 23 19 22 16 17 25 25 17 8 6 5 8 13 19 13 8 6 5 4 3 4 4 2 1 1 3 4 5 7
6 3 3 2 5 2 2 1 1 2 1 2 0 2 3 2 1 2 9 11 13 18 16 14 15 19 22 21 19 11 9 23 19 11 8 11 18 19 17 15 12 9 7 6 5 4 5 3 2 2 4 6 7 8
3 5 5 4 2 2 2 2 2 2 0 1 1 1 1 1 3 3 12 18 16 12 19 20 18 18 21 25 27 19 12 24 25 18 19 21 20 19 17 15 12 10 8 6 5 5 5 3 2 2 4 5 7 8
2 2 3 4 3 2 3 4 2 1 1 2 2 2 2 2 5 2 12 18 14 16 18 18 19 28 28 26 24 16 14 23 24 23 21 19 18 18 17 15 12 9 8 7 6 5 4 4 3 2 2 3 5 6

GFSWCAN_925_spd_087.txt.gz
Wind_Speed
15 16 14 12 10 10 13 13 9 9 10 11 9 8 11 18 23 13 7 13 5 2 3 2 2 1 2 2 2 3 3 4 2 2 2 1 2 1 3 1 3 3 2 2 1 3 2 5 3 3 3 1 0 0
14 14 13 12 8 8 9 12 9 5 9 12 11 12 9 9 13 16 5 11 10 4 3 2 2 3 4 3 2 2 3 1 2 2 2 1 3 2 2 2 2 3 2 3 3 2 2 4 2 2 1 2 1 3
14 13 12 12 9 7 6 9 10 7 6 9 11 10 8 3 6 11 5 10 3 2 2 2 1 1 4 4 3 2 2 3 1 3 3 2 4 1 3 2 2 3 3 3 3 5 7 6 4 2 2 2 1 1
17 14 12 11 9 8 6 7 10 9 5 6 8 7 8 6 3 6 5 9 2 3 2 2 1 1 3 5 5 5 3 2 1 2 2 2 3 1 2 3 3 3 6 5 7 9 3 8 7 4 4 2 3 2
18 16 13 11 8 8 7 7 9 9 6 5 4 4 6 4 2 5 8 9 7 2 2 2 1 1 3 3 2 5 6 3 2 2 2 2 0 2 2 2 7 7 8 5 4 4 3 4 2 5 6 5 4 4
20 18 15 11 8 8 7 6 8 9 7 5 3 3 3 4 1 1 2 6 8 4 1 2 2 1 2 2 2 2 1 2 2 2 1 1 0 2 3 3 5 8 5 4 2 2 2 4 3 3 5 4 4 4
23 19 16 13 9 8 8 7 9 9 8 7 4 4 2 1 1 1 1 2 3 3 1 2 2 1 2 2 1 1 1 1 2 1 3 2 3 2 3 7 6 8 7 7 5 5 3 5 2 5 4 4 3 5
26 21 16 15 11 8 6 6 8 11 11 7 3 3 1 1 1 1 2 2 3 3 1 1 2 2 0 1 2 1 2 2 2 1 1 3 2 3 5 11 2 6 7 7 7 4 3 5 4 4 3 3 5 7
27 22 17 14 12 9 5 2 2 9 10 6 4 3 1 2 2 1 2 3 0 1 2 2 2 1 0 0 1 2 1 3 1 3 2 2 4 7 7 6 9 11 9 7 8 6 5 4 4 4 4 6 8 9
29 24 19 17 15 11 8 7 9 8 8 5 3 3 2 2 1 2 1 1 1 1 0 3 1 2 2 2 1 2 1 2 2 1 1 4 6 13 7 5 6 10 8 10 6 4 4 2 5 5 6 6 7 9
31 26 21 18 15 14 11 11 14 11 7 2 2 1 0 3 3 2 2 2 3 3 3 1 3 3 3 3 3 2 1 1 3 2 2 3 4 5 6 10 6 10 9 9 4 5 4 3 1 2 5 6 9 11
33 27 23 20 19 17 15 14 17 13 4 3 2 2 1 0 1 1 2 1 4 1 1 2 2 0 2 1 2 2 2 1 4 3 2 4 3 4 6 9 7 10 10 8 7 5 4 2 1 3 5 7 10 12
35 29 25 22 21 19 16 17 22 13 9 3 1 1 2 1 2 5 5 3 3 4 5 3 2 2 2 1 0 2 3 4 1 3 4 5 3 6 8 7 7 8 10 9 7 6 3 2 3 4 7 9 11 13
38 31 27 25 25 21 19 19 22 15 3 1 2 4 5 4 5 5 2 2 2 2 6 5 3 2 1 3 2 3 1 2 3 4 6 2 6 8 9 9 9 8 7 7 5 5 4 4 4 4 5 8 11 12
40 32 29 27 28 24 20 22 22 13 4 2 3 5 7 3 0 1 2 2 3 3 5 4 3 2 2 2 3 1 2 5 6 5 2 1 6 9 9 9 8 7 5 5 5 4 2 3 5 6 6 8 8 11
39 26 26 29 30 25 20 26 15 6 2 2 5 4 2 2 3 3 3 3 5 5 2 1 3 3 5 3 4 7 3 6 3 3 1 3 5 7 8 7 7 8 8 8 6 4 1 2 4 5 6 6 8 10
37 12 28 33 32 25 29 13 5 4 5 5 5 5 4 3 2 4 5 4 10 6 3 2 6 5 3 3 4 5 5 3 3 3 1 4 6 8 8 7 9 9 8 7 5 2 1 2 4 3 5 8 9 9
14 25 32 38 35 31 6 7 4 5 8 5 4 5 4 5 3 3 4 6 6 5 5 4 1 4 5 5 4 3 4 2 2 2 1 3 7 8 9 7 9 8 7 6 3 2 1 3 2 3 5 7 10 7
31 34 35 43 34 10 4 5 6 5 8 2 2 2 3 2 5 1 6 8 4 1 4 4 4 5 5 4 4 3 2 3 3 2 1 2 5 8 10 10 10 7 7 5 3 2 2 2 1 3 5 6 7 8
32 32 36 45 36 6 4 3 5 4 5 3 2 4 3 2 3 5 5 6 4 2 4 5 6 4 4 4 3 3 2 5 6 5 3 3 3 7 7 8 7 7 6 4 3 3 4 2 1 3 4 6 7 8
32 29 43 37 16 4 1 4 4 3 3 3 3 5 3 2 3 5 6 6 5 4 5 6 6 6 3 3 5 6 5 8 8 5 4 5 9 8 7 6 7 6 5 4 4 4 3 1 2 4 5 6 6 9
24 36 12 14 3 3 2 6 2 5 3 2 3 3 2 3 4 5 5 6 5 7 6 8 9 9 6 5 5 14 11 17 11 8 10 15 6 5 6 9 7 6 5 5 4 4 2 1 3 5 5 7 8 9
30 16 6 5 3 5 4 12 5 7 5 5 4 4 3 3 3 5 4 6 6 7 9 7 5 6 4 4 6 11 16 17 6 9 12 9 10 9 9 9 7 8 6 6 5 4 3 2 4 5 5 6 8 9
16 4 4 6 6 6 5 5 3 5 4 5 6 4 4 4 4 4 5 5 7 3 6 8 6 4 2 4 4 6 12 16 12 12 14 14 6 7 8 8 7 6 5 7 6 4 2 3 4 4 4 6 7 9
6 7 5 7 5 6 7 7 6 5 5 5 6 4 4 4 5 5 4 3 4 7 9 8 8 10 8 6 5 9 20 20 12 8 13 15 14 11 7 6 6 7 9 7 6 4 4 3 4 3 4 5 8 10
7 7 12 12 8 7 8 7 10 6 5 5 7 3 3 4 5 7 3 4 10 8 10 11 13 10 9 7 9 8 17 22 18 8 14 22 19 13 8 6 5 9 13 10 7 6 5 4 3 4 5 6 7 9
7 7 4 2 5 6 5 3 4 4 7 8 6 7 5 5 7 5 3 5 5 3 14 19 19 12 10 9 16 20 26 26 14 11 14 23 19 14 15 11 10 8 14 13 10 7 6 4 3 3 5 6 6 7
3 6 8 7 4 3 6 5 7 9 5 5 8 7 10 9 7 4 3 2 2 4 5 11 15 15 14 19 24 30 29 25 19 18 20 15 12 12 13 12 10 11 13 11 9 8 6 5 4 4 6 6 7 6
4 5 6 5 3 4 6 6 8 6 6 7 9 8 6 4 1 2 2 1 3 10 7 6 8 20 21 21 23 26 35 34 17 9 10 6 5 12 17 16 15 13 11 10 9 7 5 4 3 4 4 5 5 5
5 6 4 5 7 8 6 6 4 3 3 3 1 1 2 3 2 6 4 5 6 5 9 12 14 16 12 15 15 17 22 25 17 13 9 9 10 18 27 21 17 15 13 11 9 9 7 5 4 2 1 1 2 4
7 3 4 4 4 1 1 2 1 2 1 1 1 2 4 3 2 5 9 11 10 14 13 9 13 15 19 17 16 11 10 26 22 14 11 14 20 23 28 24 19 17 14 12 10 10 9 6 5 3 2 2 2 3
4 7 6 5 3 1 1 3 3 3 2 2 2 1 0 0 4 4 9 17 13 8 14 16 15 15 21 20 20 16 16 35 30 20 17 21 24 27 27 24 21 18 15 13 11 10 8 7 5 4 2 1 1 2
3 2 3 4 3 4 4 3 3 3 2 3 3 3 3 3 6 1 9 22 16 14 14 16 17 19 23 27 27 22 17 31 30 23 21 24 26 28 27 24 21 18 15 13 11 9 8 7 6 5 3 2 2 3

GFSWCAN_925_spd_090.txt.gz
Wind_Speed
15 14 14 12 11 9 7 8 9 8 8 11 12 13 11 11 14 13 8 14 4 2 2 4 3 3 4 3 2 1 0 2 2 2 1 1 2 1 3 2 2 1 1 3 1 1 5 4 1 2 1 2 2 2
17 14 15 13 11 9 8 8 7 9 8 10 13 12 10 10 8 8 2 9 6 5 2 2 2 2 3 3 2 3 2 2 3 2 1 2 2 1 2 3 1 2 3 2 2 3 1 3 3 3 2 1 2 2
18 16 16 15 12 9 7 7 7 8 9 9 10 9 10 8 8 5 3 8 2 2 1 3 2 1 3 1 1 0 2 5 2 1 2 2 3 2 2 4 1 4 3 3 3 1 4 6 4 3 2 0 4 4
20 18 17 16 12 11 9 7 7 8 9 8 8 8 9 7 6 3 1 4 3 1 0 1 3 3 2 3 3 4 4 5 3 2 1 2 2 1 3 2 2 3 5 4 5 7 3 6 4 7 6 4 4 4
23 20 19 18 13 12 11 8 7 8 7 8 6 6 6 6 5 5 2 3 2 1 3 1 0 2 2 2 2 4 6 4 2 1 1 3 1 1 2 2 4 6 6 4 5 2 4 3 3 6 6 4 3 1
24 21 21 20 15 12 11 9 8 8 7 7 6 6 5 6 5 3 2 2 2 2 1 2 1 3 1 2 2 1 1 2 2 2 3 1 1 1 3 4 6 6 6 2 3 4 5 5 5 3 4 5 4 1
26 22 21 21 17 13 11 10 10 10 8 7 6 6 5 6 4 2 1 3 2 2 2 2 2 1 2 1 2 2 4 2 1 2 2 2 3 3 3 7 4 7 7 6 6 7 2 3 3 4 5 5 3 2
28 25 23 23 18 13 11 9 10 12 11 9 5 4 3 2 1 3 4 3 2 3 1 2 2 0 1 2 2 0 2 2 3 2 1 2 1 2 5 9 6 5 8 7 7 4 4 7 6 5 4 3 1 4
30 27 25 24 19 14 11 7 3 3 8 9 5 2 1 1 2 1 4 4 3 1 2 0 3 2 1 1 1 1 1 2 1 3 3 2 3 6 8 7 7 7 8 7 8 7 6 5 6 5 4 2 3 4
31 29 27 26 21 16 13 9 8 7 6 5 5 2 1 1 4 3 2 1 1 2 2 1 2 1 2 1 2 1 1 2 1 2 1 3 5 12 10 8 6 9 8 12 7 4 5 3 4 4 4 1 2 3
34 32 30 28 22 18 17 15 13 9 6 2 3 2 0 1 1 1 1 0 0 2 3 1 1 1 0 1 2 1 1 1 2 2 0 3 4 3 2 7 6 9 9 7 5 5 6 6 5 3 2 4 6 9
36 35 33 30 24 21 20 19 19 13 4 3 2 3 2 2 2 1 2 1 2 3 2 3 3 1 2 1 1 2 1 2 4 1 2 4 3 2 4 7 7 8 9 9 10 9 10 9 7 5 3 3 6 8
38 37 36 32 27 24 23 21 22 17 8 3 0 2 3 1 1 5 5 3 2 3 3 2 1 2 0 1 1 0 2 4 2 1 4 5 1 2 4 5 7 8 11 9 8 12 12 9 7 5 4 6 7 9
40 38 38 34 29 28 26 23 23 18 4 2 3 2 5 4 5 4 2 3 1 3 2 2 2 2 1 1 1 2 3 1 1 3 6 2 4 5 5 4 6 7 8 8 7 10 9 8 5 5 6 6 7 8
42 40 41 35 30 30 26 25 25 14 5 3 4 6 6 3 2 1 2 2 1 3 3 1 2 2 2 1 2 1 1 4 5 5 3 1 2 3 5 5 6 6 6 6 8 7 9 6 4 3 5 5 5 6
41 37 34 37 33 31 27 27 18 7 3 3 5 4 4 1 2 2 3 2 3 4 1 1 3 2 5 3 3 8 3 6 3 3 2 1 3 4 3 4 5 7 8 8 9 9 7 5 4 2 4 3 6 6
48 15 36 40 38 33 33 15 6 3 5 5 5 4 2 1 3 3 4 4 9 4 3 2 5 10 1 2 4 5 5 3 3 2 2 3 5 7 6 5 6 9 9 10 10 7 6 4 2 2 2 5 8 6
24 31 47 46 43 39 15 6 5 5 8 5 4 5 3 3 3 2 3 6 4 3 3 5 4 3 5 5 4 4 4 2 1 2 2 2 4 7 11 7 9 10 10 9 8 7 5 3 1 2 2 4 8 6
35 49 56 54 42 14 4 8 6 5 8 2 2 1 2 2 2 2 5 7 2 1 3 1 4 4 4 4 4 3 2 3 3 3 3 4 6 9 12 14 13 10 10 9 7 6 4 3 2 0 3 5 7 8
44 60 61 57 41 7 5 3 7 3 4 3 2 4 3 3 3 3 4 4 3 2 3 5 6 4 4 4 4 3 3 4 4 3 3 3 8 11 11 13 12 13 11 8 7 5 4 3 2 2 3 5 6 8
44 52 60 49 12 4 3 4 4 3 3 3 3 5 2 2 2 3 3 3 2 4 4 5 6 6 5 3 4 5 4 6 6 6 4 5 9 12 11 11 14 13 9 8 7 8 6 3 3 4 3 6 6 9
15 51 26 15 3 4 1 7 4 4 3 2 3 2 2 3 3 4 4 5 5 9 6 7 9 6 6 7 6 17 13 14 13 8 8 12 7 6 7 13 12 7 10 12 11 9 8 5 3 4 4 6 8 10
41 21 7 5 4 5 3 14 4 5 5 5 4 4 3 3 2 6 5 5 5 6 8 10 13 15 8 10 8 8 18 17 5 8 11 9 9 13 14 16 17 12 8 11 12 11 8 5 4 4 4 5 7 8
27 6 6 8 6 6 5 4 3 4 3 4 5 4 4 3 3 3 5 4 6 3 6 13 7 4 2 0 5 6 15 20 12 12 17 14 6 8 14 15 18 17 14 14 15 12 9 7 4 4 4 5 6 7
7 7 7 7 5 6 5 6 4 4 4 4 6 3 3 3 3 4 4 3 5 7 9 6 7 9 11 10 7 7 19 21 9 8 15 18 14 12 9 12 14 16 16 17 15 13 11 9 6 5 5 6 7 7
6 6 12 11 5 7 8 7 9 6 5 4 6 3 2 3 4 7 3 3 6 6 6 8 9 8 9 10 5 6 13 22 19 9 15 26 24 16 10 7 6 11 19 18 17 16 13 10 8 7 5 6 7 5
7 6 4 2 5 6 4 3 4 4 6 7 5 6 4 5 7 5 3 4 5 4 13 18 16 9 10 5 16 15 20 26 22 17 19 29 25 21 20 13 9 12 21 23 19 16 15 12 9 6 6 6 4 5
3 5 9 7 4 3 6 5 6 7 6 5 9 7 10 10 7 4 5 3 5 5 5 8 16 18 14 13 21 23 23 24 20 18 20 19 17 15 14 13 11 13 19 21 18 15 13 11 8 7 7 4 3 4
3 5 7 4 4 3 5 6 7 5 5 7 9 6 5 4 3 3 3 7 7 9 7 5 4 10 13 16 20 22 30 33 16 10 12 6 4 13 17 16 18 18 20 19 14 13 11 8 6 6 4 2 1 2
5 4 5 4 6 5 5 5 4 3 3 4 3 2 1 2 3 7 8 9 7 4 12 14 17 18 8 9 8 11 22 23 22 17 12 11 12 22 29 26 24 22 20 19 19 16 11 11 9 5 3 2 2 1
7 3 4 3 4 1 2 2 2 2 2 1 1 2 5 3 3 6 13 14 15 14 15 8 12 18 15 12 10 9 9 24 19 16 13 15 22 26 31 29 26 24 22 20 18 19 16 12 10 8 6 4 3 1
3 4 5 4 2 1 3 2 3 2 1 1 3 0 2 3 3 3 12 19 15 7 17 16 11 12 23 20 22 21 11 29 30 18 17 18 23 26 31 30 27 24 22 20 19 19 15 12 11 10 7 6 4 3
3 3 3 4 3 3 2 4 2 1 1 3 4 4 4 4 7 4 10 24 19 20 19 20 19 16 20 25 23 22 18 27 35 25 20 20 23 29 32 31 28 25 23 21 19 17 15 13 12 10 8 6 4 4

GFSWCAN_925_spd_093.txt.gz
Wind_Speed
18 15 17 15 15 12 10 9 9 8 8 10 13 15 12 9 10 10 5 10 3 2 2 2 1 3 1 2 1 4 4 4 3 2 1 2 2 3 2 4 3 4 3 3 2 1 5 5 3 5 4 2 4 3
21 18 18 17 16 14 11 9 8 8 8 9 10 13 12 8 7 8 3 6 3 3 2 2 5 5 4 8 4 2 3 0 1 1 2 2 2 1 3 3 1 3 5 3 6 5 4 6 4 3 4 5 4 5
22 22 19 20 17 15 12 10 9 7 7 8 8 9 9 9 6 5 6 8 2 2 3 1 4 8 7 7 5 3 0 0 1 2 2 2 3 3 2 5 3 3 3 3 2 2 5 6 3 6 5 4 4 4
23 23 22 22 19 17 13 12 10 8 7 7 7 7 7 7 7 5 3 8 2 0 1 3 2 4 5 6 7 4 0 1 2 2 1 2 2 2 3 4 3 5 4 4 5 6 4 4 5 7 6 6 6 4
25 25 23 24 20 18 14 13 10 9 8 8 6 6 6 6 6 4 3 3 4 2 2 3 2 4 3 4 6 6 4 1 0 1 1 3 2 1 2 1 4 5 8 5 5 7 4 2 5 7 7 6 6 5
27 27 25 25 22 20 15 13 11 10 9 9 7 6 5 5 6 3 3 1 4 2 2 3 2 1 3 3 3 5 7 3 1 2 3 3 1 2 3 3 7 7 5 8 6 4 2 5 5 4 6 6 5 5
29 28 26 25 23 22 17 14 12 11 10 10 8 6 6 5 3 1 2 3 5 1 3 4 4 2 1 1 1 1 1 2 3 2 3 2 2 2 3 12 6 8 8 5 6 8 3 4 4 5 7 7 7 4
30 29 28 27 23 23 18 14 12 12 12 12 10 6 3 2 2 3 3 2 3 1 4 0 4 4 1 1 2 0 1 1 2 3 1 3 0 1 5 9 10 10 6 6 7 3 4 6 7 6 6 5 4 2
32 31 29 29 25 24 18 13 9 7 4 8 6 3 3 3 3 3 2 2 2 0 2 2 3 3 3 2 1 2 1 1 1 3 3 3 3 7 9 7 7 7 7 8 7 7 7 6 7 6 5 4 3 1
34 33 31 31 29 26 19 13 10 8 8 8 6 2 2 3 2 2 1 2 3 2 2 3 2 1 3 1 2 1 0 2 1 3 1 3 5 9 9 7 7 6 7 12 6 4 5 3 6 5 5 4 4 3
35 36 34 33 32 28 21 18 16 12 10 5 4 3 1 1 1 3 1 2 0 1 2 3 3 2 1 2 3 2 2 0 1 3 2 3 4 4 7 7 7 9 10 6 4 4 6 7 6 6 5 5 5 5
37 39 37 36 34 30 23 23 22 18 5 6 6 4 3 2 3 3 2 2 3 5 2 3 4 3 0 1 1 2 2 1 5 1 1 4 4 5 6 5 5 7 8 8 7 9 8 10 10 8 7 6 5 4
39 40 39 38 37 33 26 27 27 20 9 4 1 2 3 1 2 6 6 4 2 3 3 2 0 2 1 1 0 2 2 4 1 1 4 4 4 4 3 2 5 6 9 8 7 11 13 11 10 8 7 5 3 3
42 42 41 40 41 36 30 30 30 23 5 3 4 4 5 4 5 5 4 5 4 4 5 3 2 2 2 1 2 2 3 2 2 2 6 3 3 5 2 1 4 6 7 8 6 8 9 9 8 6 5 2 2 2
45 44 43 42 43 38 33 33 32 20 7 3 4 6 7 4 1 3 2 3 1 5 5 3 3 2 0 1 2 2 3 4 6 5 3 3 3 4 4 4 4 5 6 6 8 7 9 8 7 6 3 3 2 2
47 41 40 44 46 39 36 34 22 13 3 3 5 4 2 2 3 0 2 2 3 4 2 3 3 3 4 4 3 7 5 7 4 4 3 1 2 5 5 5 5 6 7 8 11 12 11 9 7 5 4 3 1 1
48 20 36 47 48 42 41 19 7 5 5 5 4 4 2 2 4 4 4 4 8 3 3 3 6 10 1 1 3 5 6 4 4 3 2 4 5 6 6 6 7 10 10 10 11 11 10 9 8 7 5 3 1 0
30 32 39 55 51 44 24 8 6 5 8 4 4 4 5 3 3 3 4 5 4 3 4 5 4 3 6 6 4 4 5 3 2 3 3 3 4 5 9 7 11 13 13 13 13 11 10 10 8 6 6 3 1 1
35 43 57 62 50 17 5 6 6 5 7 3 2 2 3 2 3 3 4 9 3 3 4 2 4 5 5 4 5 4 3 3 3 3 2 4 8 8 9 12 14 13 15 15 13 10 10 9 7 8 6 4 3 1
40 55 66 61 45 7 5 3 8 3 5 4 3 4 2 3 3 3 4 6 4 3 2 5 7 4 4 4 5 4 3 4 4 2 3 4 10 12 14 14 11 14 13 12 11 10 10 7 8 8 6 5 4 3
39 51 65 53 6 5 3 4 4 4 4 3 4 6 2 1 2 3 3 4 2 4 4 6 4 6 5 3 7 7 4 6 6 5 4 3 7 13 12 16 17 16 9 9 8 9 12 9 10 10 7 6 5 4
12 54 26 18 3 5 3 6 4 4 3 3 5 3 3 3 3 4 4 2 4 10 6 4 7 8 6 8 8 16 16 18 16 10 7 9 4 4 6 13 15 8 12 12 11 10 11 11 11 8 7 6 5 4
41 20 7 5 4 5 4 12 4 5 5 6 5 4 3 3 3 5 3 4 5 5 7 6 15 14 8 13 12 16 21 19 7 7 11 13 13 15 15 18 19 14 8 13 16 15 13 10 10 8 7 6 4 2
27 6 5 6 5 6 6 5 4 5 4 5 7 4 4 3 3 3 4 4 4 2 4 15 9 3 1 1 6 9 15 20 13 14 18 14 4 9 19 18 21 19 18 16 17 17 14 14 10 9 8 7 4 2
6 6 6 6 5 6 6 6 6 4 5 5 6 3 4 3 4 5 5 3 3 8 10 6 7 8 9 9 7 9 19 22 8 9 15 21 13 12 11 16 19 23 22 18 17 18 17 15 13 10 9 9 6 4
6 7 12 14 6 7 9 7 9 6 5 5 6 3 3 4 4 7 4 4 5 7 6 8 8 6 7 10 9 5 10 24 20 6 14 27 24 14 9 8 6 11 23 22 21 20 19 17 15 12 11 9 7 4
7 7 5 2 5 6 4 3 5 4 7 7 6 5 5 6 8 5 3 4 4 4 15 17 13 8 9 5 17 19 12 20 17 14 11 25 28 28 26 17 10 16 23 27 24 23 22 20 17 14 12 10 7 4
4 5 9 7 4 2 6 4 6 8 6 5 7 7 11 10 7 3 5 2 8 8 7 8 17 19 17 14 12 15 16 18 14 12 13 13 17 20 20 18 14 14 19 25 27 23 19 19 17 15 13 10 7 4
4 6 7 5 4 4 6 6 7 4 5 8 8 6 5 4 3 3 4 8 12 13 6 3 5 9 8 8 15 22 21 28 11 7 9 5 3 10 20 19 19 20 21 25 21 19 18 17 15 14 11 8 6 5
5 5 4 4 6 6 5 5 4 4 2 3 3 2 2 3 4 9 12 14 8 5 12 15 15 18 7 7 5 12 22 26 22 8 9 10 10 23 32 28 26 25 26 27 25 21 17 15 14 12 11 10 8 7
8 3 4 3 4 1 1 1 2 3 2 1 1 2 3 2 3 9 19 20 18 13 11 5 10 20 13 9 5 6 7 26 29 21 13 12 20 29 34 32 30 29 29 27 26 26 23 21 17 14 12 11 9 7
3 4 5 4 1 1 2 2 2 2 1 1 2 1 3 2 3 3 11 21 12 5 15 14 7 10 30 24 23 20 7 14 30 28 20 20 23 29 34 34 32 31 30 28 27 26 21 20 18 15 13 11 9 7
3 3 3 4 3 3 2 4 2 2 1 2 4 4 4 4 7 4 9 24 21 23 22 28 28 22 16 22 26 23 20 13 13 28 25 22 24 31 34 35 35 33 31 29 27 26 21 19 17 15 13 11 9 7

GFSWCAN_925_spd_096.txt.gz
Wind_Speed
18 18 18 14 14 13 13 12 11 11 10 11 12 12 13 10 9 8 1 6 0 3 3 4 2 3 2 3 3 3 2 3 3 2 2 2 2 3 3 4 3 4 3 4 1 2 6 5 4 5 4 1 5 4
20 19 19 17 15 15 13 12 12 11 11 10 10 10 11 10 7 7 2 4 2 2 3 4 7 8 5 7 2 2 5 5 4 2 1 1 2 1 3 3 1 3 5 3 7 5 4 6 4 3 4 5 4 4
19 21 19 20 19 16 15 13 12 10 11 9 9 10 9 9 8 5 4 4 2 2 3 2 4 4 6 3 4 2 3 1 2 3 4 3 4 3 3 5 3 4 3 3 2 3 6 6 3 4 6 4 3 3
20 21 21 21 21 19 16 15 13 12 10 9 8 8 8 8 8 6 2 4 1 3 2 4 2 3 4 6 4 3 3 3 2 1 2 3 3 5 4 4 5 5 5 4 6 7 7 7 7 6 5 6 5 4
24 22 23 21 22 21 19 15 14 12 10 9 9 8 8 7 8 8 5 2 1 2 3 3 2 4 4 4 4 4 3 2 1 1 1 3 2 1 2 1 5 7 9 5 7 8 5 5 3 7 8 6 7 6
26 24 24 24 23 22 21 16 14 14 10 8 9 9 8 7 7 4 2 2 1 2 2 2 2 0 1 2 2 3 3 1 0 2 3 3 3 2 3 4 7 7 5 12 8 5 6 3 5 5 7 7 6 6
30 27 25 27 25 23 22 17 13 14 13 10 8 8 8 7 7 3 3 2 3 1 2 4 4 2 1 1 1 1 2 2 3 2 3 3 2 3 2 15 3 8 9 7 5 7 2 4 5 7 7 8 10 9
34 30 28 29 28 24 23 18 14 12 14 12 9 7 6 5 5 5 7 3 1 2 4 1 4 3 1 1 1 1 2 1 2 2 2 2 2 2 5 6 6 6 6 6 10 5 4 7 7 7 8 8 7 6
38 33 31 31 30 26 24 19 14 10 9 13 8 7 4 4 3 1 2 4 3 2 2 2 3 3 2 1 1 1 1 1 1 2 2 1 3 6 7 5 7 4 4 3 5 5 7 8 9 8 7 7 7 6
37 38 35 33 33 29 25 21 14 9 8 11 6 2 3 4 3 1 1 2 3 2 2 3 1 2 3 1 2 1 1 1 1 2 1 3 4 6 10 7 8 10 7 9 5 3 4 3 7 7 7 5 6 5
38 41 40 36 36 32 29 24 19 18 12 5 4 3 1 2 3 3 1 2 1 3 3 3 3 2 1 2 2 1 2 0 1 3 2 3 4 4 4 8 8 8 8 9 5 4 7 8 8 8 7 7 8 8
41 42 44 40 39 35 32 29 28 23 9 9 7 4 2 1 2 3 3 2 4 5 3 4 4 3 1 2 2 1 1 1 4 0 2 3 4 6 6 6 8 5 7 5 3 8 8 11 14 10 9 10 11 10
42 44 44 42 42 39 36 34 34 26 13 6 3 3 2 1 1 7 8 4 2 5 5 3 2 4 1 1 2 2 2 4 1 1 4 5 4 5 6 4 3 3 7 7 7 9 14 13 16 14 10 11 10 9
43 45 44 45 44 42 40 38 38 30 8 3 5 5 6 5 6 6 4 4 4 4 7 4 3 3 2 2 3 3 3 2 2 3 6 3 4 4 5 3 2 3 6 6 6 8 9 9 9 9 9 9 9 8
43 45 46 47 46 44 45 44 41 31 7 4 5 7 8 4 2 1 2 2 1 6 5 4 3 2 1 3 2 2 1 4 6 5 3 4 3 2 3 3 5 6 5 6 7 7 9 11 9 7 5 6 5 6
41 44 48 47 49 47 48 45 33 14 5 3 6 4 3 2 2 2 2 2 2 5 3 3 3 3 4 4 3 7 5 7 4 4 4 2 2 2 4 5 6 6 7 7 11 12 12 11 9 7 7 6 6 6
38 26 32 45 50 53 52 23 9 6 6 6 5 4 3 0 3 3 4 4 6 3 3 3 6 9 3 2 4 5 6 4 4 3 3 4 4 4 5 5 6 9 9 12 13 12 11 10 9 9 6 7 7 4
26 33 32 48 55 49 28 7 6 7 8 5 5 6 6 3 3 2 3 4 5 3 4 5 5 3 6 7 5 4 5 3 3 3 3 4 5 5 8 6 10 13 13 16 17 16 14 13 10 8 8 9 6 5
36 34 42 60 53 17 6 7 7 6 6 3 2 3 4 2 3 3 4 7 2 4 5 1 4 5 6 4 4 4 3 4 4 5 4 5 8 8 9 12 13 14 16 16 15 14 16 17 13 12 12 13 9 8
41 39 58 67 52 7 5 3 8 3 6 5 3 6 3 3 5 5 4 6 4 3 2 4 7 4 4 4 5 4 3 4 4 2 4 4 10 12 13 14 13 19 18 16 17 12 13 12 12 14 14 15 12 9
39 37 63 56 11 6 4 4 4 4 4 4 4 7 3 3 3 5 6 6 3 4 5 7 5 5 6 3 6 7 5 5 6 5 5 3 6 14 13 18 19 19 12 12 10 11 14 13 15 16 15 16 12 9
17 46 22 16 3 4 3 5 4 4 3 3 6 3 3 3 4 6 6 6 5 9 7 11 9 7 7 7 7 14 17 17 16 9 6 7 4 2 3 13 14 7 13 16 17 15 16 19 16 17 16 14 10 9
40 20 6 6 4 5 4 10 4 4 5 8 5 4 3 3 3 7 5 5 5 6 11 14 12 12 8 11 11 15 22 16 7 7 10 12 14 17 13 16 20 14 8 16 23 21 20 18 18 18 16 13 12 9
22 6 5 7 5 5 5 5 3 4 3 4 6 4 4 3 5 3 5 4 3 2 8 16 10 11 2 1 7 12 17 18 14 13 18 12 6 8 20 18 21 22 21 18 24 22 20 19 18 16 17 15 12 10
7 6 6 5 4 5 6 6 5 4 5 5 7 3 5 4 4 5 4 3 3 7 10 9 9 10 10 8 8 9 21 21 8 9 15 21 13 6 9 15 19 23 24 22 18 20 19 19 18 20 18 16 14 11
6 6 11 12 4 6 8 7 10 6 5 4 6 3 3 4 5 8 4 4 7 8 10 11 11 8 9 10 9 5 10 23 19 5 13 23 23 12 8 8 5 11 26 28 26 23 21 21 19 19 17 15 13 12
9 7 5 2 5 6 4 2 4 4 6 7 5 5 4 6 8 5 3 4 4 5 16 17 14 9 8 6 16 18 9 12 16 12 10 15 24 28 25 15 11 16 27 32 30 28 26 24 21 20 18 17 16 14
4 6 13 8 3 2 6 5 6 9 6 6 7 8 11 10 7 4 6 5 14 7 11 16 19 21 14 14 12 13 12 13 12 7 5 7 13 19 22 21 17 16 21 30 31 28 26 27 25 23 21 19 16 13
3 5 7 6 5 4 6 6 8 5 6 8 10 5 5 3 3 3 3 7 13 16 5 4 5 11 9 7 12 18 15 24 9 6 7 4 2 10 18 18 17 20 22 25 22 25 25 23 22 22 20 17 15 13
5 4 4 5 7 8 5 6 4 4 3 4 3 2 2 3 3 7 11 14 6 5 9 11 15 16 6 5 3 11 20 24 23 10 6 7 8 13 25 25 26 24 25 27 25 22 19 19 19 19 19 17 16 14
8 3 4 3 5 2 1 1 2 3 2 2 1 2 4 3 3 6 16 12 11 11 9 4 6 15 11 5 6 5 6 28 30 27 15 9 13 19 28 30 28 27 29 30 30 26 25 24 24 22 20 18 16 14
3 4 5 4 1 1 1 2 2 2 2 2 3 1 2 2 3 3 11 22 10 4 11 12 5 5 34 27 22 22 16 11 23 33 28 19 18 20 26 32 31 29 29 29 27 26 28 27 24 23 21 19 17 16
3 3 3 4 3 1 1 3 3 3 1 1 3 3 3 4 7 4 6 22 19 20 20 29 33 28 22 20 25 25 24 16 12 19 30 25 21 24 29 33 33 31 30 30 28 29 28 26 24 21 20 19 17 15

GFSWCAN_925_spd_099.txt.gz
Wind_Speed
15 16 16 19 16 15 14 14 12 12 10 8 8 8 8 10 9 7 3 3 0 2 4 6 4 4 2 2 4 3 2 2 3 1 1 2 2 3 1 4 4 5 4 4 2 3 7 5 3 6 5 1 3 4
17 17 16 19 18 17 15 14 13 12 10 8 7 7 8 8 9 7 2 2 3 3 3 5 9 9 4 4 4 1 3 2 3 3 1 1 3 1 3 4 1 3 6 4 8 6 4 6 6 4 4 4 5 4
22 22 19 18 19 20 18 16 14 13 10 9 7 6 5 7 8 7 4 4 2 2 3 1 5 7 10 10 9 2 2 2 2 3 3 3 5 4 3 5 3 5 3 4 0 5 7 9 6 6 7 6 5 4
24 25 23 20 20 21 21 18 16 14 11 9 7 6 6 5 7 7 4 3 2 2 1 4 1 4 4 9 7 4 3 2 3 1 2 3 3 4 4 4 5 6 6 4 7 8 7 9 8 5 6 5 4 3
26 27 27 25 22 22 23 20 17 15 13 9 8 5 5 5 6 9 9 5 3 2 3 4 4 3 4 7 6 5 4 2 2 1 1 3 2 2 2 2 7 6 11 6 10 8 6 7 4 6 9 8 8 7
26 27 28 28 25 22 24 23 19 15 15 11 9 6 5 4 5 4 3 3 2 3 2 3 2 1 3 4 4 5 6 2 2 3 4 3 3 3 3 4 5 6 4 13 15 3 6 4 3 3 7 8 7 8
26 27 28 29 28 24 26 25 21 17 14 12 9 6 6 5 4 3 3 1 3 2 2 4 3 1 1 1 0 1 2 2 2 2 3 2 2 3 3 12 3 6 6 8 9 4 4 4 5 6 5 7 12 10
28 29 28 29 29 27 25 27 23 18 14 12 9 6 5 6 5 5 9 9 3 2 2 1 4 2 5 3 2 1 2 1 2 2 2 2 1 1 5 6 5 5 6 9 7 8 5 2 7 6 7 8 7 6
30 31 30 29 30 30 27 26 24 19 14 11 7 6 4 5 4 1 4 4 6 4 2 2 3 4 2 1 1 1 1 2 1 2 2 1 2 6 9 6 7 5 4 9 5 4 2 5 7 8 8 7 7 6
31 32 32 29 32 31 29 26 25 19 11 10 12 4 2 3 4 4 3 2 2 2 0 4 1 2 3 1 0 2 0 2 1 3 1 3 4 9 10 9 6 7 7 5 3 2 2 2 6 7 7 5 6 6
32 32 32 30 32 33 30 28 27 19 18 7 5 3 4 6 3 3 1 2 1 3 3 3 5 3 2 3 3 2 2 1 1 3 2 3 3 5 2 4 5 7 8 8 5 4 7 5 8 7 5 5 8 10
34 32 35 33 33 34 34 33 31 31 12 13 11 5 4 2 2 2 3 2 4 5 3 5 4 2 1 1 3 1 2 1 5 0 1 3 4 5 4 5 6 6 2 4 2 2 3 6 11 8 7 8 9 9
35 34 34 34 35 37 38 39 36 26 23 11 3 3 1 2 2 8 8 4 3 3 4 3 2 3 1 0 2 2 3 4 1 1 4 5 4 4 5 3 3 2 3 5 4 6 9 9 12 12 9 11 13 12
36 35 36 35 37 39 43 44 44 35 9 3 6 6 7 5 6 7 5 4 3 3 5 2 3 3 3 2 3 4 2 3 1 3 6 3 6 4 3 3 3 3 4 5 4 7 9 10 9 9 11 13 13 11
37 36 36 37 41 41 49 49 52 32 8 5 5 8 9 5 2 2 3 4 3 6 4 3 3 2 1 2 2 3 1 5 6 5 3 4 5 5 4 5 7 6 5 6 7 5 9 14 13 11 10 11 11 10
35 37 40 38 41 40 52 53 45 17 4 3 5 3 2 3 2 3 3 3 4 6 3 3 3 2 3 3 3 8 7 7 4 4 4 2 3 5 5 6 7 7 8 8 12 13 14 15 15 12 12 11 11 12
34 26 27 29 35 42 56 23 9 6 6 6 6 5 3 0 4 4 4 4 8 5 4 3 7 9 4 2 4 5 6 4 4 4 3 5 5 5 5 6 5 9 9 12 13 16 17 13 11 11 7 13 12 12
25 19 28 25 29 42 7 8 6 7 9 6 4 6 7 2 3 3 3 6 6 3 5 5 5 4 7 7 4 4 5 3 3 3 4 5 6 6 7 7 10 14 15 18 20 19 17 17 14 12 16 13 13 13
28 24 26 24 34 15 5 5 5 6 8 2 5 3 4 2 2 4 6 9 3 2 5 2 4 5 5 4 4 4 3 4 5 5 4 6 9 9 10 13 13 14 17 17 18 17 19 24 19 18 17 16 15 15
32 34 29 39 49 7 5 3 8 3 5 5 2 7 3 3 6 4 7 8 6 2 4 5 6 4 4 4 6 4 4 4 4 2 4 4 11 13 12 13 12 16 16 17 19 16 17 16 21 19 19 20 16 15
30 33 30 49 11 6 4 4 4 4 4 4 4 8 3 2 4 7 5 7 5 4 8 6 9 11 5 3 8 7 5 5 6 7 5 4 6 14 13 18 19 14 9 9 7 12 18 17 18 24 21 19 18 16
13 19 14 16 3 4 3 6 4 4 3 2 7 4 3 4 4 5 6 5 6 13 6 10 13 12 10 11 9 15 14 17 16 9 8 5 3 2 4 12 11 7 12 15 16 15 19 19 22 21 22 20 15 16
19 12 5 4 3 5 4 10 4 5 6 7 6 4 3 3 3 7 5 6 7 3 8 13 14 13 13 18 12 19 25 19 9 9 12 13 17 17 15 16 20 12 7 15 22 19 20 21 20 21 19 15 18 15
11 7 6 7 5 5 4 4 3 4 3 4 5 4 5 4 6 4 6 5 4 4 10 14 10 12 13 5 11 13 17 19 14 16 18 11 8 10 20 20 23 24 22 15 22 20 21 22 21 20 21 20 17 14
5 6 6 5 4 5 5 5 3 3 5 5 6 3 4 4 5 5 5 3 3 6 9 11 13 15 17 16 12 11 20 22 10 11 18 22 17 6 9 17 21 25 25 20 16 18 20 24 24 24 23 21 20 18
7 9 11 11 5 7 8 7 9 6 5 5 6 2 2 4 5 9 4 7 7 8 11 13 16 14 12 11 9 5 12 24 19 9 13 24 21 10 7 7 5 10 26 26 23 21 21 23 24 24 22 20 19 17
7 6 4 2 4 4 3 2 3 4 6 7 6 6 4 5 8 5 3 4 5 9 20 21 14 11 11 9 19 21 12 18 19 13 10 12 21 26 22 11 10 13 18 31 30 28 27 25 24 24 21 22 22 21
4 6 11 8 3 2 5 4 7 9 6 6 7 8 11 10 6 4 5 2 11 7 13 17 21 19 15 16 16 18 16 17 14 6 3 6 11 17 20 21 19 13 13 24 30 29 29 30 27 26 24 22 23 21
5 4 5 5 3 4 6 7 8 5 5 8 10 6 5 4 3 3 3 6 11 10 3 3 5 13 10 9 14 21 17 25 9 6 6 5 2 9 15 16 15 15 15 19 20 25 27 25 25 26 25 23 21 19
5 7 4 7 7 9 6 6 4 3 3 5 3 2 1 2 3 6 8 8 4 5 10 11 13 15 7 8 6 9 19 24 25 10 5 6 6 9 20 22 22 20 20 24 23 21 19 19 18 19 21 20 20 20
7 4 3 4 5 3 2 2 2 2 2 2 0 3 4 2 3 7 14 13 14 9 7 3 4 14 9 6 5 5 5 27 31 29 22 9 4 10 20 25 24 24 26 28 28 25 25 23 23 24 24 23 21 19
3 6 5 4 3 3 2 1 3 2 0 2 2 1 1 1 4 3 11 20 8 6 11 11 6 8 32 26 25 21 11 8 18 27 28 18 13 14 18 23 25 27 28 28 25 27 28 26 24 23 23 22 22 20
3 3 2 4 3 2 2 3 2 1 1 1 3 3 3 3 7 3 6 28 23 24 18 25 30 29 25 30 29 23 19 14 9 9 16 23 19 18 21 25 29 29 30 28 25 28 27 26 24 24 23 23 22 19

GFSWCAN_925_spd_102.txt.gz
Wind_Speed
19 18 20 17 14 14 12 13 12 13 13 12 11 9 8 8 9 7 1 2 1 2 4 5 3 3 1 2 3 3 3 1 1 2 3 3 2 3 2 4 4 5 4 4 3 3 7 5 3 5 5 2 3 4
21 20 21 20 17 14 13 14 13 13 13 12 10 10 9 7 7 6 2 2 3 3 4 5 10 13 6 3 4 1 2 2 4 3 1 1 3 1 3 4 2 3 5 3 7 6 4 6 6 5 3 4 4 5
23 21 20 22 20 16 13 14 14 14 14 12 11 9 9 8 7 6 3 3 1 2 4 2 5 7 14 13 8 3 2 2 1 2 3 1 5 4 3 5 2 5 5 4 1 5 6 7 7 6 6 6 4 5
24 23 21 22 23 20 16 15 15 16 14 13 12 9 8 9 9 8 4 3 2 3 1 5 2 3 4 10 10 6 2 2 3 2 2 2 2 4 3 4 5 5 5 4 6 10 8 10 7 8 6 6 5 3
24 23 22 22 23 22 19 17 15 16 16 13 13 11 9 7 9 11 11 7 6 3 3 4 6 3 4 8 7 5 4 2 1 1 1 3 2 1 2 2 5 7 8 5 7 9 7 9 5 3 5 8 7 6
25 24 24 22 24 23 20 19 18 16 16 15 11 11 10 8 7 7 3 5 7 6 2 3 2 1 2 5 5 4 3 2 2 2 3 3 3 2 3 4 7 6 3 8 9 2 6 9 8 5 5 6 6 7
26 26 26 23 24 25 21 21 19 18 16 16 11 9 9 9 9 6 3 1 5 5 2 4 4 1 1 2 2 2 2 1 2 2 3 2 2 2 3 11 14 7 8 7 6 3 7 6 7 6 6 7 13 9
25 25 25 25 24 25 24 22 20 18 18 16 10 7 6 8 12 11 16 11 7 2 3 1 4 1 6 2 2 1 1 1 1 2 2 2 1 1 5 13 5 5 6 8 8 6 8 6 4 5 4 7 7 7
22 23 24 26 28 25 25 25 21 18 18 15 7 5 5 5 5 3 5 9 10 3 2 3 3 4 2 1 2 2 2 2 1 2 3 2 3 6 9 7 7 7 5 7 8 9 8 8 8 6 6 6 6 6
26 25 25 26 27 27 25 26 23 19 18 12 9 5 2 5 6 6 1 1 1 2 1 4 2 2 4 1 1 2 0 2 2 4 1 4 5 13 14 10 6 7 7 6 4 6 4 6 6 7 7 5 6 7
24 25 25 26 27 27 25 24 25 22 16 11 7 3 5 9 5 2 2 2 2 3 4 3 5 4 3 3 3 2 2 0 2 3 2 3 4 5 4 4 4 5 6 8 10 10 7 7 6 7 6 7 9 11
24 26 28 28 28 27 26 25 33 31 14 14 11 7 5 2 2 2 3 2 4 5 4 6 4 3 2 2 3 2 3 2 5 0 0 4 5 6 4 5 5 4 6 7 6 8 8 7 9 7 6 6 11 13
27 28 29 28 30 30 27 26 41 30 22 14 1 3 4 2 3 8 9 4 4 4 5 4 4 4 2 1 3 3 4 5 2 1 4 6 4 4 6 4 5 5 5 4 4 4 3 3 8 10 8 12 14 13
29 27 29 29 30 30 28 29 46 35 11 3 6 6 7 6 7 7 6 5 4 3 6 2 2 4 3 2 3 4 3 3 1 4 7 3 7 7 6 4 4 5 6 6 5 3 5 7 6 7 13 15 15 12
30 30 29 30 32 31 29 28 52 31 9 5 5 7 11 5 2 2 1 3 2 7 6 3 1 1 2 3 3 3 3 5 6 5 4 4 6 6 5 5 7 7 6 5 5 4 7 10 9 9 11 13 12 11
32 30 36 33 31 30 29 29 46 18 9 5 6 5 2 2 3 2 3 2 2 6 3 3 3 3 4 4 5 9 8 8 4 4 4 2 5 6 6 6 7 6 6 7 10 11 12 12 12 10 11 13 13 13
29 32 27 26 27 28 29 20 10 6 6 6 5 5 3 0 3 3 4 4 8 5 4 3 7 9 3 2 4 5 6 4 4 4 3 6 7 7 7 6 6 8 8 12 13 17 18 17 12 10 5 16 15 15
37 31 27 29 27 28 11 9 6 6 7 4 5 6 6 3 3 3 4 8 7 4 4 5 5 5 7 7 4 4 6 3 3 3 4 5 6 6 6 7 9 13 13 15 18 18 19 18 13 12 20 17 16 15
33 27 28 26 26 10 6 6 6 6 7 3 3 3 5 3 3 3 5 10 3 3 4 1 5 5 5 5 5 4 3 4 4 4 4 6 9 8 10 13 13 13 15 15 16 15 18 25 21 18 20 18 15 19
34 32 31 30 28 7 4 4 10 3 4 5 3 7 3 3 5 5 7 10 5 3 5 5 7 4 4 4 4 3 3 4 3 2 4 5 10 12 12 12 11 15 15 15 18 16 16 15 23 23 21 22 19 18
32 31 30 28 11 6 4 5 4 4 3 4 4 7 3 2 3 6 7 9 6 5 7 12 5 5 6 3 6 5 5 5 7 7 5 4 4 12 12 16 19 14 8 8 6 11 18 17 18 24 24 21 24 22
21 20 11 14 4 5 3 4 1 4 4 2 7 4 3 4 5 8 7 6 5 11 11 13 11 10 11 12 8 15 12 14 15 9 11 4 3 2 4 11 9 7 9 14 15 12 17 18 22 24 24 24 19 20
18 14 7 6 3 5 5 9 3 4 5 8 6 5 3 3 3 7 5 6 9 12 10 13 9 9 13 19 17 21 24 19 11 11 10 11 17 17 13 14 18 9 7 14 22 19 18 19 20 21 24 19 23 20
12 7 6 7 6 5 3 4 3 3 3 4 6 4 3 3 5 3 5 7 11 4 9 11 8 10 11 13 15 17 17 20 15 18 22 10 9 11 17 18 19 24 24 15 21 19 20 20 19 20 22 22 21 19
7 7 5 4 3 5 6 4 4 4 5 5 6 3 3 4 4 4 5 4 5 7 9 10 13 15 16 18 16 14 21 22 10 11 17 19 17 11 6 15 21 24 23 21 14 17 17 20 21 21 22 22 21 21
8 10 10 9 4 7 7 8 7 5 4 4 6 2 2 4 5 8 4 4 8 7 10 13 15 14 16 16 14 10 8 22 20 10 16 20 20 11 9 7 6 10 26 26 19 19 18 21 20 22 21 23 23 21
8 8 4 3 4 3 3 2 2 4 6 8 5 6 4 6 8 5 3 5 5 7 20 23 16 13 16 12 18 23 15 21 23 14 15 17 26 28 22 9 9 12 12 24 27 25 24 23 22 23 20 21 23 24
4 5 10 7 3 2 5 4 6 9 6 4 7 8 11 10 7 4 6 3 12 7 12 16 20 18 15 14 13 14 14 18 17 9 5 7 12 17 21 22 18 10 8 14 22 25 26 27 25 25 25 22 23 23
3 3 4 4 3 3 6 8 7 5 4 7 9 6 6 4 3 3 3 5 6 10 3 2 4 7 7 7 12 20 17 24 10 7 7 4 2 9 20 19 17 14 13 15 16 20 24 25 26 28 27 24 23 23
6 5 4 6 6 7 5 7 4 3 3 4 3 1 2 3 4 9 8 6 3 5 8 7 9 11 5 5 3 8 19 23 21 8 5 5 6 8 16 19 20 19 17 20 21 18 17 19 19 19 21 21 22 23
7 4 4 4 5 4 3 2 3 1 1 2 1 3 4 3 4 9 18 15 13 10 6 3 5 13 8 7 7 7 6 26 30 26 13 7 10 10 14 19 21 21 22 24 25 22 24 24 24 23 23 22 23 23
3 7 6 4 3 3 2 1 2 2 2 1 3 1 2 1 5 4 12 19 7 6 12 10 7 8 26 23 23 21 11 20 31 32 28 20 14 11 15 20 23 25 25 26 23 24 27 24 21 20 21 23 24 23
2 2 2 4 2 1 2 3 1 3 2 3 4 5 5 5 8 4 6 25 21 20 17 23 25 22 23 30 33 30 17 7 8 12 19 23 19 19 22 26 27 26 27 27 25 27 26 24 23 23 23 24 23 21

GFSWCAN_925_spd_105.txt.gz
Wind_Speed
18 17 18 16 15 14 12 11 11 12 14 15 14 11 10 10 10 9 3 3 2 2 4 7 6 5 2 2 4 3 2 1 2 1 2 2 2 3 2 4 5 7 5 4 2 3 7 5 4 5 5 2 3 4
18 17 18 18 17 16 14 12 12 11 12 14 15 12 9 8 9 9 2 2 3 4 4 6 12 11 7 7 5 2 3 3 4 3 2 1 3 1 3 4 1 4 6 3 8 6 4 6 6 4 4 5 5 4
18 18 17 17 18 18 16 14 13 13 13 13 14 13 10 7 6 8 6 5 3 2 4 1 6 9 16 16 11 4 2 2 3 2 3 1 5 3 3 5 2 4 3 4 2 5 9 8 7 6 4 8 6 7
19 20 20 18 18 18 17 16 15 14 14 13 13 13 11 10 7 6 5 5 3 1 2 5 2 3 3 10 14 9 5 4 5 2 2 3 3 4 4 4 5 5 5 4 7 10 11 9 7 7 6 6 8 6
21 20 21 20 18 19 18 16 16 16 14 15 12 13 12 10 10 11 10 10 10 2 2 4 4 3 4 8 9 8 7 3 2 2 2 4 3 2 2 1 6 7 7 5 7 7 6 6 5 4 5 8 8 7
21 21 19 20 20 19 20 18 16 17 16 15 13 12 10 10 9 8 3 1 9 5 1 4 1 2 3 7 8 6 6 2 2 3 3 3 3 3 3 4 6 7 5 12 9 3 5 8 8 6 10 14 8 8
22 22 21 22 21 21 21 20 16 17 17 16 14 12 9 8 9 4 3 1 8 7 2 4 4 1 4 4 2 2 2 1 3 2 3 2 2 3 3 7 10 9 9 8 7 1 5 5 5 6 6 8 8 4
23 25 23 22 20 20 20 21 19 16 18 17 14 10 6 7 10 10 16 16 7 2 3 2 4 4 6 2 2 1 3 1 2 2 1 3 2 3 6 15 10 4 4 6 8 8 8 5 6 8 4 1 4 3
22 23 22 21 18 19 21 21 20 17 17 16 12 6 3 6 4 2 3 9 13 3 2 3 4 4 2 1 1 1 2 2 1 3 3 2 3 7 12 10 8 7 6 5 3 6 7 7 9 7 5 5 6 5
20 22 22 21 21 20 20 20 19 18 18 17 11 5 2 4 6 9 2 1 1 2 2 4 1 3 4 2 0 2 1 2 2 4 3 4 6 17 12 11 7 7 7 4 3 6 3 4 6 5 7 5 6 6
22 21 22 22 20 19 18 20 17 13 23 8 6 3 5 10 4 1 2 3 2 4 4 4 7 4 3 4 4 3 2 1 1 3 3 3 4 6 7 9 10 8 7 7 7 6 6 5 4 5 5 6 8 11
23 23 22 22 22 21 19 19 16 28 13 15 12 8 6 3 1 3 4 2 5 5 3 4 4 2 2 2 3 3 3 1 6 1 2 4 5 7 4 7 7 7 7 7 7 7 6 6 9 6 5 5 10 13
25 24 22 24 23 21 19 20 18 27 20 14 4 4 4 3 5 7 9 4 4 5 5 3 2 4 2 2 2 3 5 6 2 2 4 6 3 3 6 5 5 5 6 5 5 6 6 6 6 8 7 10 12 13
27 27 25 23 24 24 19 19 21 27 10 3 5 7 7 5 7 6 6 4 3 3 7 4 3 2 2 3 2 4 4 3 2 4 7 4 7 7 6 4 4 5 7 7 6 4 4 6 6 8 11 15 18 16
28 27 26 26 25 24 22 23 20 27 8 4 4 6 10 6 1 2 2 2 1 4 5 3 2 3 2 2 3 3 3 5 6 6 3 4 5 6 6 6 7 7 5 5 3 4 6 9 8 8 11 14 15 13
26 26 29 27 28 27 26 22 20 18 7 3 5 4 3 2 2 3 3 3 3 6 2 1 2 3 6 4 4 9 8 8 4 4 4 3 2 5 6 6 7 6 6 6 9 11 11 12 12 11 13 15 16 15
25 25 22 25 23 22 26 24 15 6 5 6 5 5 3 0 4 4 5 5 9 8 4 3 5 12 3 2 4 5 6 4 4 3 3 5 7 7 6 6 6 6 6 9 10 14 15 16 12 11 6 18 18 17
30 27 22 24 20 23 25 15 6 7 8 6 7 11 5 4 4 2 3 9 7 5 4 6 3 4 6 7 4 4 7 4 3 4 3 5 7 7 7 7 7 11 10 13 16 15 15 15 11 10 17 17 17 17
29 27 26 25 21 13 4 8 8 5 8 4 4 3 3 3 3 3 5 10 1 1 6 4 5 4 9 5 5 4 4 4 5 4 4 6 8 8 8 11 12 11 12 11 12 13 16 22 21 17 19 19 14 19
33 32 31 32 26 7 5 4 6 4 7 6 2 4 3 4 4 5 7 10 7 3 3 5 7 12 5 4 6 5 3 4 3 2 5 4 7 9 10 11 10 16 13 13 15 15 15 14 21 24 23 21 16 17
29 32 29 28 21 15 4 3 3 4 3 4 4 6 3 2 3 6 7 9 6 4 5 9 16 15 11 8 6 4 5 5 7 8 7 4 5 11 10 14 14 12 7 7 7 9 18 16 19 22 23 21 24 25
23 23 16 22 8 8 4 8 3 1 3 2 6 6 4 4 5 7 6 6 4 8 9 15 16 13 12 15 12 15 13 15 19 12 14 9 4 2 3 8 6 7 7 12 16 11 18 23 22 23 23 22 20 25
26 22 7 10 8 9 6 11 6 7 5 4 5 5 3 2 3 7 5 5 8 10 14 14 15 11 13 18 16 21 28 21 13 12 11 10 16 17 15 15 17 10 9 15 22 22 21 19 21 21 23 18 21 20
21 9 7 6 8 5 3 5 3 4 4 4 4 4 3 3 4 3 5 5 10 6 12 19 11 11 12 18 15 16 19 20 13 18 23 11 9 10 18 19 19 24 26 22 22 22 19 19 20 20 21 19 19 18
7 8 6 7 5 6 7 4 4 3 4 5 5 4 4 3 4 4 4 4 8 12 13 11 12 15 18 16 15 15 20 19 10 13 16 21 18 16 8 15 19 23 24 20 15 14 15 18 20 20 21 20 20 19
9 11 10 10 6 7 7 7 7 7 4 4 6 2 2 4 6 7 5 8 11 8 10 12 14 13 13 17 16 13 12 18 19 9 17 20 21 12 10 9 7 8 25 28 18 17 16 18 19 20 19 21 21 19
7 8 4 2 3 4 3 1 2 3 5 7 4 6 5 5 7 6 2 3 6 8 15 19 14 12 15 11 16 20 19 19 22 16 22 17 23 27 22 9 10 11 12 19 24 24 22 22 21 20 17 19 22 25
4 4 11 7 2 0 5 5 7 8 6 4 6 6 11 10 8 4 6 3 12 13 11 17 19 19 17 17 14 12 12 17 18 13 8 9 13 17 22 24 19 12 9 13 19 22 24 24 22 23 22 20 21 25
3 3 4 4 3 3 6 8 7 5 4 6 8 6 6 4 3 3 3 7 6 6 1 3 7 9 7 8 11 16 14 19 8 7 9 8 2 8 21 19 18 15 13 13 12 14 18 19 21 23 23 23 25 24
8 6 5 6 6 8 6 7 4 3 3 4 3 3 3 3 4 12 11 7 3 5 9 7 7 12 5 6 4 7 16 21 19 10 7 7 6 10 14 22 21 19 16 16 16 14 14 16 18 19 21 22 23 24
4 4 3 5 6 4 3 1 2 1 0 2 1 3 7 4 4 11 21 21 17 14 4 3 5 13 6 7 6 4 6 23 30 25 16 7 8 12 15 19 21 22 21 21 22 23 22 22 23 22 22 21 23 22
4 8 6 5 4 2 1 3 3 4 2 2 4 2 3 2 6 5 13 17 8 7 15 14 9 10 27 22 21 21 19 13 25 34 31 21 15 13 16 18 21 23 24 25 24 24 26 25 22 21 22 24 23 25
3 3 2 3 0 2 3 4 3 3 1 3 4 6 6 8 15 6 7 21 27 21 19 24 27 25 24 26 28 25 22 16 13 25 31 29 23 19 19 21 24 25 26 26 24 26 26 25 23 24 23 23 24 25

GFSWCAN_925_spd_108.txt.gz
Wind_Speed
13 12 12 11 11 13 13 13 12 9 10 13 13 13 12 11 11 10 4 3 1 2 5 6 4 3 2 2 3 4 2 3 2 5 4 3 4 3 3 2 5 8 7 6 5 7 9 8 5 6 3 0 2 3
16 15 14 12 11 13 13 13 13 12 10 11 12 12 11 10 9 9 2 4 3 4 4 5 10 14 6 3 2 3 3 2 3 3 3 1 4 3 4 5 3 5 7 3 8 6 1 9 8 2 1 3 7 9
16 16 16 13 12 13 15 13 13 14 12 11 12 12 11 9 8 7 6 6 3 3 4 2 4 6 15 15 9 4 2 2 2 2 1 1 7 3 4 7 5 7 7 5 2 9 17 15 12 12 12 11 12 10
17 17 17 17 14 15 15 15 13 13 14 12 12 12 12 9 7 7 5 5 3 2 3 2 2 4 4 7 15 9 2 4 3 1 2 4 4 5 4 6 7 7 8 10 13 18 18 18 14 10 7 8 10 9
18 17 17 17 16 15 16 15 15 12 14 13 14 12 13 11 8 9 11 11 9 1 4 5 5 4 5 5 6 7 5 3 2 2 3 4 2 2 3 3 13 11 12 9 8 11 11 11 7 2 7 11 11 12
19 18 17 15 15 16 16 16 16 15 12 14 13 14 12 11 9 5 2 1 9 9 1 4 1 1 2 5 6 6 6 2 2 3 3 3 2 3 4 5 9 11 16 19 13 10 11 11 8 8 7 6 8 9
17 17 16 16 16 17 18 17 17 16 14 14 13 14 13 9 8 4 2 1 7 8 1 4 3 1 2 3 2 1 2 2 3 2 4 3 3 4 4 10 10 11 14 13 13 8 11 10 8 6 5 10 12 9
16 16 17 18 17 17 14 12 15 16 16 13 13 13 10 6 10 9 13 17 7 2 1 3 4 1 8 2 2 2 2 1 4 3 2 3 2 3 7 19 13 9 8 9 12 12 14 7 4 10 10 8 8 7
17 16 17 17 17 15 13 12 14 15 14 14 14 11 6 5 5 4 3 7 17 4 3 3 3 3 4 2 2 2 2 3 1 4 4 5 5 8 16 14 13 9 7 4 2 5 5 9 12 11 8 6 7 6
17 17 16 17 16 15 15 14 12 12 13 11 15 5 3 6 5 7 2 2 2 3 3 4 2 4 5 3 3 3 2 3 3 4 3 5 7 20 20 15 13 7 10 6 1 5 4 4 5 5 5 6 7 6
19 18 17 18 18 16 13 11 10 9 14 8 5 2 6 11 5 2 2 4 4 4 5 4 7 4 5 4 4 4 3 2 3 1 3 4 5 7 5 12 16 13 9 9 8 7 6 7 6 6 6 5 6 8
20 19 18 18 17 17 14 11 11 13 6 8 10 7 6 3 3 4 5 3 6 6 4 4 4 3 3 2 2 4 3 2 6 3 2 5 6 8 3 5 5 9 10 9 8 8 7 7 8 7 5 4 8 10
20 20 20 19 18 16 15 11 14 13 13 9 3 4 3 3 6 8 10 4 4 4 5 4 3 3 2 3 2 3 6 6 3 3 4 7 4 4 5 3 4 6 7 5 7 8 7 7 7 8 6 7 9 10
22 21 22 21 19 18 16 15 13 12 7 3 5 7 6 6 8 6 6 4 3 3 7 4 3 2 2 4 3 4 3 3 3 4 8 4 5 7 6 5 4 5 8 8 7 5 5 5 6 7 8 9 11 11
22 23 23 22 20 19 17 17 15 19 9 5 3 6 11 7 0 1 1 2 3 5 5 3 2 1 2 3 3 2 3 6 6 6 4 3 3 4 6 6 8 6 5 6 4 5 6 8 7 7 10 12 14 13
23 23 25 22 21 21 18 18 19 11 10 3 6 6 2 1 2 3 3 3 4 6 3 2 3 2 6 4 4 10 5 7 5 4 4 2 3 2 6 7 7 6 6 6 7 8 9 9 9 9 10 13 16 17
22 15 15 16 18 18 18 16 8 5 5 7 6 6 12 4 6 5 7 5 10 7 4 3 9 10 2 2 5 6 7 4 4 4 3 5 5 4 7 6 5 6 8 9 7 10 11 12 10 9 7 15 19 20
23 14 14 17 18 17 20 14 6 6 8 7 5 15 8 11 14 8 6 8 7 5 5 6 0 5 8 6 6 5 8 6 5 6 6 5 5 6 6 8 4 7 7 9 12 11 11 11 9 9 12 16 18 19
28 25 23 22 21 10 3 6 8 5 9 4 7 8 7 8 5 5 8 10 5 2 6 5 5 5 6 5 7 7 4 4 4 5 7 10 8 8 8 12 13 13 13 12 12 11 15 19 17 12 13 16 15 15
30 30 28 25 18 5 5 4 6 5 8 7 3 6 5 9 5 6 8 9 7 4 4 5 7 8 6 11 8 10 9 8 6 8 7 8 6 8 8 11 9 17 13 10 12 12 11 10 17 19 20 19 16 17
27 30 27 25 14 15 3 4 5 4 3 5 3 10 6 2 5 6 6 8 6 4 6 10 13 15 19 19 15 8 11 7 8 9 11 11 5 9 9 14 17 12 7 5 7 9 16 13 20 20 21 23 24 21
19 20 12 18 9 7 5 10 3 2 3 2 2 3 3 5 6 5 6 6 5 10 12 16 17 17 18 22 21 24 24 22 22 16 21 17 11 7 7 9 6 8 9 10 14 10 14 21 19 21 21 23 20 20
21 16 9 11 7 8 7 11 9 7 7 4 4 4 3 3 3 7 4 5 8 13 15 16 23 27 20 26 25 20 22 20 13 14 15 13 19 22 17 15 16 9 9 15 22 16 17 22 21 22 21 19 19 17
21 7 7 6 8 6 5 7 4 5 6 6 5 7 4 5 5 4 5 4 11 10 13 22 14 14 15 18 15 16 18 23 13 17 26 14 13 12 19 20 22 24 27 25 19 19 19 19 18 19 19 19 18 17
7 7 6 9 6 7 7 5 6 4 4 5 9 5 4 4 5 5 4 4 12 12 10 12 11 13 14 16 15 14 28 18 12 15 18 21 18 17 13 17 20 24 22 16 14 17 17 16 18 20 19 19 18 17
10 11 9 8 6 7 8 6 7 8 4 6 7 2 3 4 5 7 6 11 11 11 10 10 12 11 13 15 16 14 14 19 19 11 15 24 20 12 11 10 9 10 22 25 21 16 16 17 18 19 17 20 21 17
8 7 3 2 4 3 3 1 2 3 7 7 4 7 5 5 7 6 2 4 5 5 12 17 13 11 12 11 17 21 20 20 22 17 20 20 24 25 22 9 12 12 13 20 23 20 18 18 17 18 16 16 19 21
4 4 16 10 4 3 5 5 7 9 5 3 6 8 7 9 8 4 6 4 11 11 11 14 18 19 15 17 19 17 15 17 20 20 20 19 18 19 23 25 24 17 13 13 15 17 18 18 17 18 18 17 17 22
7 8 3 5 2 3 6 8 8 5 5 6 7 6 6 4 3 3 3 7 6 6 3 4 8 15 18 20 21 19 18 16 6 7 9 10 5 8 21 25 21 18 15 12 10 13 15 16 18 20 20 19 19 21
6 4 4 4 6 7 5 8 4 3 3 4 2 3 3 3 5 13 13 9 2 6 11 13 15 10 6 6 6 10 19 22 19 11 6 8 5 11 12 19 22 19 16 15 15 12 12 14 15 17 18 18 19 19
5 5 3 4 7 7 3 1 1 2 3 4 2 4 10 4 5 15 20 24 21 18 8 8 11 15 7 8 7 7 6 22 30 31 25 21 14 12 11 14 19 20 19 19 18 17 19 18 17 17 18 17 20 21
5 9 8 6 7 2 1 4 3 4 4 3 4 4 2 2 5 7 18 20 11 9 14 17 13 15 23 25 23 25 24 16 20 28 26 23 22 15 12 16 18 20 20 21 19 20 23 20 18 17 18 20 21 23
4 3 2 2 2 4 4 3 3 3 2 3 5 6 8 9 13 8 18 25 24 20 23 31 27 25 25 26 27 26 26 29 23 15 17 21 25 20 19 16 19 22 22 21 21 23 22 21 19 20 20 22 23 24

GFSWCAN_925_spd_111.txt.gz
Wind_Speed
16 15 13 12 12 12 12 11 10 10 10 12 12 12 14 14 12 10 3 5 2 3 5 5 4 5 3 4 5 4 2 3 3 4 3 4 4 3 3 7 4 10 7 6 7 8 11 11 9 7 3 4 1 4
17 16 15 15 14 12 13 13 12 12 11 11 11 11 11 12 11 9 2 6 5 6 4 5 12 13 10 7 4 6 2 1 3 4 3 3 4 3 6 5 8 6 10 4 10 7 3 14 11 11 3 4 5 9
16 16 15 15 15 14 12 16 14 13 12 11 12 11 10 10 10 7 4 8 4 3 6 4 6 9 16 17 9 5 5 4 4 1 3 3 6 5 6 10 14 10 13 6 6 10 17 17 16 14 11 10 9 8
14 13 15 15 14 15 13 14 15 13 13 13 13 12 12 10 9 9 3 6 2 4 4 3 3 2 5 8 13 13 7 2 1 2 4 5 6 5 6 10 13 11 3 11 17 21 20 21 18 17 15 7 7 8
17 17 16 15 13 14 14 14 14 13 14 13 13 13 13 11 10 10 12 11 9 2 3 5 5 2 5 4 6 7 10 7 4 3 4 4 4 4 8 9 15 15 16 12 9 10 13 12 1 5 6 8 9 8
13 14 14 16 15 13 13 14 15 15 14 14 13 14 13 11 8 6 2 1 6 9 2 4 2 2 2 3 5 7 7 5 4 3 3 4 1 3 4 5 9 10 15 19 18 15 9 10 7 7 10 10 8 6
13 13 12 14 14 13 13 15 17 16 15 14 14 14 14 13 9 5 2 2 5 9 1 4 3 2 4 4 4 3 3 2 2 2 4 4 3 3 4 10 11 7 12 14 15 13 14 11 8 3 6 6 7 10
13 11 11 12 13 15 14 14 11 12 13 13 14 14 14 10 7 8 13 16 7 2 2 3 4 2 8 3 3 3 3 3 4 3 1 3 2 3 7 24 14 16 11 13 13 12 13 7 2 6 7 8 10 10
13 13 13 11 12 13 12 12 11 10 11 13 14 10 7 4 4 3 4 7 18 6 3 3 3 3 3 3 2 3 3 3 2 4 4 5 5 9 17 16 15 11 9 7 5 9 8 9 9 7 8 8 9 8
16 16 15 12 11 11 12 11 10 10 10 7 9 3 2 3 4 3 1 2 3 3 3 4 3 3 4 3 3 3 3 3 3 4 2 4 8 23 22 16 12 10 8 7 3 3 5 5 6 7 7 6 6 5
18 17 16 15 11 10 10 9 5 4 6 4 3 1 3 7 1 3 3 4 4 4 4 4 6 8 6 4 4 4 2 3 3 4 4 4 5 6 8 11 13 19 15 12 10 3 2 4 4 4 6 5 4 6
18 18 16 16 12 11 10 7 5 8 3 2 4 5 4 1 2 4 4 3 4 5 4 3 3 5 3 2 4 3 3 1 5 3 3 4 7 7 9 11 5 7 12 12 10 7 6 5 6 6 5 4 6 9
18 18 16 16 14 13 11 9 8 6 5 4 2 2 3 4 7 7 9 4 4 4 4 4 3 4 2 3 3 3 5 6 1 3 5 7 5 7 6 3 2 1 5 6 7 7 7 7 7 8 6 9 8 9
20 20 19 18 16 15 14 11 8 9 6 3 4 5 7 7 6 6 6 4 2 2 5 4 3 2 1 4 2 3 2 2 3 5 8 4 5 7 8 4 4 5 6 5 6 5 6 6 6 9 10 9 9 9
23 21 21 19 17 16 15 14 13 16 8 4 4 7 11 8 1 1 2 2 3 5 6 3 1 2 2 3 3 2 3 5 6 6 3 3 4 6 7 4 6 5 5 6 5 7 7 9 7 7 11 11 11 10
23 21 24 21 18 17 17 17 14 13 5 5 6 7 4 2 4 4 4 3 5 6 2 0 3 3 6 4 6 9 4 7 5 4 4 4 6 5 6 6 7 6 6 5 5 7 9 10 9 9 10 12 13 14
23 16 15 16 17 17 18 13 8 7 5 5 7 8 12 8 7 5 6 4 11 6 4 3 5 11 2 3 4 5 7 6 6 4 4 5 8 9 7 5 7 5 7 7 7 10 10 11 10 8 7 12 16 17
26 18 21 22 17 13 9 12 5 6 10 8 7 11 8 11 14 13 9 6 6 6 5 5 1 6 6 6 5 6 8 9 7 8 9 9 8 7 6 10 7 9 8 11 14 13 13 12 8 8 12 13 14 16
31 25 25 20 20 11 4 5 9 5 8 7 13 11 10 8 9 9 8 7 13 5 2 3 7 6 12 13 16 17 15 13 11 12 5 8 10 9 11 11 14 11 12 14 11 10 12 16 16 13 13 15 11 14
34 30 27 26 24 9 6 4 7 5 10 12 7 9 10 12 10 11 10 7 9 4 6 6 12 15 14 14 13 14 15 14 12 12 13 12 12 10 8 11 8 15 12 12 12 13 11 10 15 20 21 19 14 14
29 31 29 28 14 19 4 3 5 4 3 8 9 8 11 4 8 12 10 7 9 5 9 13 17 19 24 21 25 16 16 16 16 13 15 14 13 14 9 14 17 15 8 7 8 9 17 9 20 20 21 21 23 23
16 21 16 21 8 6 5 9 3 1 3 3 2 3 8 12 12 9 3 7 6 10 11 16 18 18 19 20 20 30 29 32 29 22 23 20 13 14 13 12 8 11 10 10 12 11 14 19 19 21 22 23 21 21
19 16 9 11 7 7 4 11 6 6 6 5 3 5 6 8 6 5 4 5 7 12 15 15 22 28 19 32 33 33 33 23 13 13 14 13 20 25 20 20 21 10 10 13 20 21 21 22 23 24 23 18 18 19
15 7 7 5 10 6 5 7 4 5 6 11 9 18 16 11 5 5 8 13 13 15 14 19 13 15 15 18 16 17 19 20 14 19 27 14 12 14 21 21 22 20 22 24 22 20 19 18 20 19 18 16 16 15
6 8 6 7 6 7 6 6 6 8 12 13 19 12 5 2 6 8 13 15 17 15 13 12 12 13 14 15 14 15 28 17 11 14 15 18 17 17 12 17 20 21 22 16 13 16 20 20 16 16 15 15 14 15
9 11 6 10 5 6 7 9 9 14 10 8 8 4 5 5 6 7 11 15 13 14 13 10 11 11 11 13 14 12 13 17 18 10 14 20 18 11 10 10 9 12 21 21 17 19 18 14 14 15 14 17 19 16
7 8 5 5 5 4 5 5 6 6 7 8 5 7 5 5 7 10 13 5 10 9 17 19 13 10 11 11 17 21 21 21 21 17 18 17 20 23 20 10 13 17 16 15 18 19 16 14 15 16 15 14 16 19
5 7 15 11 6 6 15 9 6 7 6 4 4 7 8 9 8 5 4 5 9 14 13 14 18 21 18 20 21 18 19 20 23 21 23 26 31 32 32 31 29 25 17 13 13 14 15 14 13 13 13 12 12 16
7 7 8 9 11 5 7 7 8 6 4 5 9 11 10 8 12 7 6 17 14 9 4 6 11 18 18 23 24 25 21 14 5 11 11 8 8 9 16 19 20 21 19 16 13 10 9 10 12 11 12 12 14 18
7 7 10 8 7 9 7 7 6 9 4 7 6 5 7 7 11 26 21 15 7 9 14 17 18 10 8 8 10 14 19 22 22 14 9 9 7 11 9 8 11 15 16 15 11 8 8 9 10 11 13 15 15 15
4 6 5 9 14 14 14 3 1 1 2 4 4 8 16 13 11 21 23 24 22 22 17 13 13 17 9 10 11 11 10 17 27 33 33 23 14 10 10 7 9 13 16 15 14 14 15 13 11 11 12 13 15 16
6 9 9 11 14 7 2 4 3 5 5 4 8 5 2 3 13 13 26 22 15 12 19 19 13 13 24 30 26 23 27 28 24 24 22 26 23 19 13 10 12 16 16 15 16 16 17 14 12 12 13 15 16 18
3 3 2 5 2 5 4 3 4 5 3 5 6 9 12 11 18 17 14 21 25 22 23 29 30 30 29 28 26 27 29 30 27 25 24 22 25 23 20 18 18 17 18 18 17 17 17 16 15 16 16 18 19 20

GFSWCAN_925_spd_114.txt.gz
Wind_Speed
13 13 12 12 12 12 12 12 13 12 12 13 12 11 12 14 14 11 3 7 3 3 4 4 3 3 1 1 2 1 2 1 2 2 2 4 3 4 1 4 6 8 7 5 5 5 10 7 4 6 5 2 6 6
13 13 13 12 12 12 11 12 14 13 12 12 12 10 10 11 12 11 3 7 7 4 5 5 10 13 6 2 0 4 0 2 3 2 3 3 3 2 4 4 3 4 8 5 10 7 6 11 7 11 2 4 4 5
12 12 12 11 12 13 13 13 13 14 12 11 12 12 9 9 10 10 6 9 4 2 5 1 3 5 14 18 10 3 2 1 2 2 2 3 4 2 3 5 9 6 6 5 1 7 16 14 12 9 8 8 6 5
13 13 12 11 12 14 13 12 12 13 12 12 12 13 11 9 9 10 5 8 4 4 2 4 3 3 4 8 14 13 1 1 1 1 2 3 2 4 3 6 10 6 2 6 13 17 17 21 22 17 10 7 6 5
13 13 14 14 14 13 12 12 11 12 10 11 13 12 12 10 10 11 13 9 9 2 3 4 6 2 5 4 4 6 6 2 1 1 2 3 3 2 5 7 16 13 20 12 11 9 10 5 3 3 5 4 5 6
12 11 12 13 13 14 13 12 12 12 13 10 12 12 12 11 8 5 2 2 4 8 1 4 1 3 1 3 5 5 5 3 2 3 3 4 1 1 4 4 6 11 16 18 18 11 8 5 4 4 6 7 5 5
12 12 12 11 11 11 11 11 11 13 12 9 9 11 11 14 11 5 3 0 2 8 1 4 3 2 3 3 2 2 1 1 2 2 3 3 1 2 3 10 19 7 10 11 13 8 10 5 5 4 4 4 4 3
11 11 10 10 11 10 9 9 10 11 10 9 11 12 13 11 10 9 13 16 7 2 1 3 4 1 7 3 2 1 2 3 3 3 1 3 1 3 7 24 16 12 13 16 19 10 9 5 4 2 1 2 5 7
12 10 9 10 10 9 8 7 8 8 7 9 11 9 5 4 4 3 4 6 16 4 2 3 3 3 2 1 3 2 3 3 2 3 3 4 4 8 14 14 14 11 7 7 3 6 7 6 6 5 6 7 8 7
15 13 12 11 10 10 9 7 7 6 5 7 3 1 1 1 3 2 1 2 2 2 2 3 2 3 3 2 2 2 3 3 3 5 1 4 6 26 23 19 18 15 10 7 4 5 4 4 7 7 8 6 7 6
16 14 13 12 11 9 8 6 5 2 4 2 2 2 1 4 1 3 3 3 3 3 4 4 3 4 3 2 3 4 2 2 3 3 3 3 4 7 3 6 8 9 10 14 9 5 7 5 5 6 6 7 5 6
17 16 15 14 13 11 9 7 6 6 2 2 2 2 2 1 2 4 3 3 4 4 4 3 4 4 2 0 1 2 3 2 5 3 3 4 5 6 8 10 9 6 8 10 9 9 7 5 6 6 5 5 8 9
18 17 16 15 14 13 11 9 8 8 5 2 1 1 2 3 5 5 5 4 4 4 4 3 1 3 2 1 2 2 4 5 2 3 4 6 6 11 8 8 8 6 6 4 3 3 8 7 9 10 6 10 10 10
20 18 17 17 15 14 13 13 10 10 5 3 4 5 5 6 6 6 4 3 3 3 5 3 2 3 2 2 2 4 3 1 3 4 7 3 6 6 7 6 5 7 5 5 5 4 6 7 7 12 14 12 11 10
23 21 19 19 18 16 15 15 14 17 8 5 3 6 10 5 2 1 1 2 1 4 4 2 2 2 2 3 4 3 3 5 6 5 4 3 3 5 9 7 6 6 7 6 3 4 7 10 8 9 14 14 15 14
25 22 24 22 20 19 18 16 15 14 4 4 6 7 5 3 2 1 2 2 3 4 1 2 2 3 6 4 5 8 3 7 5 4 4 5 6 7 6 7 7 7 6 6 7 12 14 11 10 13 15 16 18 19
25 18 21 21 24 24 21 12 8 5 5 5 7 5 8 2 3 4 4 4 10 4 3 3 6 10 1 4 5 4 5 5 4 10 3 4 7 12 13 9 8 6 6 8 13 16 18 19 17 13 9 17 23 23
28 21 23 20 18 18 18 15 5 5 7 7 6 12 4 4 6 8 6 4 4 4 3 5 3 5 7 7 11 8 6 7 9 11 12 16 8 10 8 11 11 12 10 17 19 20 18 13 8 10 17 16 17 19
33 29 26 26 26 15 7 8 7 4 8 3 7 8 6 6 4 6 3 6 10 3 2 2 7 9 12 11 14 14 13 12 14 15 15 19 14 9 12 17 19 16 15 14 15 12 15 20 21 18 17 16 13 16
35 33 31 31 31 10 6 4 10 4 5 6 4 10 8 7 8 6 9 9 6 3 7 8 10 12 10 10 9 13 13 14 14 15 16 14 18 19 9 11 9 17 15 18 19 21 16 13 20 23 22 21 15 16
33 36 34 34 23 18 4 4 5 3 3 3 4 7 6 3 8 12 13 11 8 12 14 11 15 17 17 19 27 21 15 15 16 15 16 16 17 18 16 22 23 16 7 8 7 7 13 8 22 20 21 23 26 27
22 26 23 25 9 9 5 10 3 4 4 3 0 3 3 9 11 12 9 8 13 13 11 14 16 16 17 18 17 29 31 32 31 24 29 28 16 15 14 14 10 9 8 10 11 10 15 21 21 21 22 22 22 21
20 25 9 9 7 7 3 13 6 5 5 3 3 4 4 7 8 2 6 6 8 10 14 15 20 28 17 33 35 35 35 29 13 16 17 14 22 25 19 19 20 10 11 14 20 21 21 23 22 20 21 19 17 19
17 12 8 7 7 4 5 6 3 3 3 3 3 5 5 6 3 5 8 11 13 15 12 14 10 13 15 20 15 16 26 21 17 22 22 12 11 13 21 22 22 22 22 23 21 21 20 20 20 19 18 16 15 16
6 7 5 7 5 6 7 6 5 4 6 7 8 6 4 3 3 5 8 15 15 12 11 13 13 14 15 17 16 15 33 20 11 12 16 19 17 16 13 19 21 24 26 21 14 15 18 19 20 17 15 15 16 15
7 6 6 9 5 6 7 7 8 9 6 6 7 3 2 5 12 11 14 11 9 11 14 13 12 12 9 12 14 13 20 25 22 6 18 19 19 11 9 10 10 14 19 23 21 17 16 16 14 14 15 18 20 14
6 5 4 4 4 3 2 2 3 4 7 7 4 5 4 6 7 12 3 5 8 11 20 20 9 7 11 15 24 27 30 28 21 17 23 23 23 23 21 11 13 23 22 20 21 23 18 16 12 13 12 11 12 13
5 6 9 6 3 3 7 4 6 7 5 3 3 6 7 8 15 11 7 15 25 25 19 19 21 20 23 26 25 26 28 28 25 23 25 29 34 35 35 35 37 41 32 27 24 22 22 18 13 13 13 11 11 14
5 4 5 7 7 4 7 7 7 5 5 5 9 13 14 12 14 11 17 25 26 19 5 7 18 24 26 28 28 28 28 21 3 9 13 10 10 13 25 25 26 22 18 16 14 15 14 12 11 13 12 11 11 12
8 8 6 5 6 8 7 6 5 10 9 11 12 12 12 14 23 32 26 21 10 10 21 27 27 16 9 10 11 17 23 23 23 13 9 11 10 20 17 17 16 11 8 9 13 9 7 9 9 10 11 13 14 14
4 7 5 9 13 15 14 12 4 4 3 4 4 10 17 15 18 29 26 29 27 25 20 15 15 23 14 12 11 12 13 23 24 28 32 32 28 26 21 16 11 8 11 14 15 15 15 13 12 12 12 12 14 14
5 11 11 12 14 12 3 2 4 6 10 7 13 5 3 3 17 12 22 23 19 12 20 24 14 16 32 30 29 30 31 31 32 31 32 31 29 27 21 19 14 12 16 18 17 17 17 15 13 12 13 13 15 15
0 1 1 5 7 3 2 3 3 4 2 8 11 13 15 14 23 9 14 23 28 27 26 29 32 32 30 31 30 31 32 35 38 35 32 32 27 21 21 20 18 19 21 19 19 18 17 15 14 15 15 17 17 18

GFSWCAN_925_spd_117.txt.gz
Wind_Speed
12 11 10 9 9 7 6 6 8 9 10 12 13 12 11 11 12 9 3 8 4 0 5 3 2 3 1 1 3 3 3 1 2 2 3 3 3 4 2 4 6 8 6 5 4 5 10 5 3 7 6 2 5 3
11 11 11 10 10 9 9 8 8 9 11 10 11 12 11 10 9 8 2 6 6 4 5 5 11 14 8 4 4 2 2 2 4 2 2 1 2 2 3 4 1 2 7 5 11 9 7 8 8 9 3 4 4 4
9 8 8 8 9 9 9 10 9 8 9 9 11 10 11 10 9 8 6 5 2 2 4 3 2 3 6 15 11 3 2 2 3 3 3 2 4 3 3 5 4 4 7 5 2 10 21 15 12 9 7 8 7 7
9 8 8 7 7 8 9 9 9 8 8 10 11 11 10 11 8 8 7 6 2 2 0 5 3 4 4 5 10 11 1 1 4 2 2 3 3 4 4 6 5 6 2 4 13 19 14 16 13 14 13 9 8 9
9 8 9 9 10 10 10 9 9 8 8 10 10 11 10 10 9 8 11 8 8 1 2 4 11 3 4 5 4 5 6 1 1 0 1 3 3 1 4 3 13 10 10 8 11 14 12 16 6 3 5 5 6 7
8 7 7 8 8 9 9 8 10 9 10 12 11 10 10 7 8 4 2 4 4 6 2 4 2 0 2 1 3 3 4 2 3 3 3 4 3 3 3 4 6 7 9 17 16 14 12 10 8 6 8 9 8 8
9 8 8 8 7 7 8 7 9 9 9 10 9 9 9 7 12 4 2 4 5 6 1 4 4 2 2 2 3 2 1 1 3 2 3 3 2 3 3 5 4 2 5 7 9 8 12 10 9 9 9 8 8 6
8 8 7 6 6 7 6 7 10 9 8 8 9 10 9 4 8 8 7 9 6 3 3 2 4 3 3 0 1 0 1 0 2 2 1 2 1 2 6 18 11 8 9 12 15 11 16 10 6 6 5 4 5 7
9 10 8 6 5 6 6 6 8 7 6 7 7 3 1 3 4 0 1 4 12 3 2 3 2 3 1 0 1 1 1 3 2 2 2 2 2 6 10 6 9 11 8 18 15 10 9 7 9 8 6 5 7 7
12 12 11 8 7 7 7 7 6 6 6 4 2 2 1 1 1 1 1 0 1 1 1 3 0 2 4 1 1 1 2 2 3 4 2 3 3 27 19 20 20 21 19 14 12 15 7 7 7 6 8 7 7 6
14 14 11 10 10 9 8 6 4 1 6 3 2 1 1 2 1 1 2 2 2 3 4 2 3 3 3 2 3 3 2 2 3 2 3 2 4 5 6 7 10 11 10 10 10 12 10 9 5 6 7 7 7 8
15 14 14 13 12 10 8 7 7 6 3 2 2 2 1 1 1 2 3 3 5 4 4 3 4 4 1 2 2 2 3 1 5 2 2 3 5 8 7 10 13 10 8 9 8 9 8 7 6 5 6 7 10 15
17 16 15 14 13 11 10 10 9 7 4 2 2 1 0 1 4 5 6 4 3 3 3 2 1 3 1 1 1 2 3 4 2 2 4 7 5 7 7 6 9 7 7 8 8 10 7 7 12 9 7 14 14 13
19 17 18 15 15 13 12 11 9 9 4 2 3 4 5 5 5 6 4 3 3 3 4 3 2 2 2 2 2 3 3 2 3 4 8 4 6 4 5 6 5 11 9 9 7 5 7 6 7 15 18 19 14 13
22 21 20 19 16 15 14 13 13 14 6 4 4 6 9 4 2 3 2 1 2 3 3 2 2 2 2 2 3 2 3 5 6 6 4 3 2 4 5 7 8 13 9 7 4 8 8 11 9 14 21 22 21 19
23 22 24 22 20 19 18 15 12 10 4 3 6 5 5 2 4 2 1 2 2 4 2 2 2 2 5 4 6 8 4 8 5 4 3 4 7 7 12 10 7 9 9 8 12 14 17 12 10 14 22 23 23 22
22 18 21 23 24 23 21 13 9 5 4 5 6 6 3 1 3 3 4 3 8 3 2 2 5 11 0 4 5 5 6 5 5 6 4 7 8 19 19 11 10 13 13 16 16 18 19 23 20 13 11 22 21 24
24 20 22 22 21 20 23 18 7 5 9 6 3 7 4 4 4 4 4 3 4 4 3 6 2 7 9 8 14 8 6 5 5 7 12 17 18 17 19 18 20 23 20 21 21 21 17 15 6 8 18 22 16 19
28 26 26 23 24 12 7 9 9 6 9 3 5 2 3 3 3 7 4 9 12 4 2 3 7 6 10 8 12 11 11 10 11 12 12 18 23 23 26 28 27 20 19 20 21 15 18 21 18 20 20 17 12 17
28 29 28 27 27 9 6 4 10 4 5 5 1 9 5 6 8 4 6 7 4 3 7 10 16 16 15 16 13 11 5 8 13 16 17 15 24 27 21 19 14 22 21 21 21 22 16 14 23 23 22 20 16 17
25 31 29 30 26 23 4 4 4 4 3 3 6 8 4 1 4 9 11 4 4 7 11 11 14 14 19 24 29 25 14 16 16 15 16 15 19 25 25 29 29 27 13 13 12 12 18 9 24 23 21 21 23 25
25 23 17 26 11 7 6 11 3 4 3 3 0 3 3 5 10 9 2 4 4 10 10 14 15 14 16 19 18 32 32 33 31 26 28 28 16 15 16 18 15 12 13 13 15 12 18 23 23 22 21 24 25 23
25 20 13 13 6 7 5 12 6 7 6 5 2 4 4 3 4 3 4 5 9 11 15 12 20 30 19 32 34 34 35 29 14 13 21 22 24 31 27 26 24 13 13 18 22 21 21 25 23 22 24 24 21 19
21 8 8 6 10 6 5 5 4 5 2 3 3 5 3 4 2 3 6 11 11 10 10 16 14 13 14 16 14 15 26 24 20 25 28 19 13 17 25 26 25 25 23 25 22 22 22 21 20 20 21 19 16 15
5 8 7 7 6 7 6 6 5 3 6 8 7 4 3 2 3 4 8 8 7 9 11 13 11 10 12 15 14 15 29 22 9 12 26 25 24 24 19 24 25 26 22 21 20 19 19 19 17 15 16 14 14 15
11 11 6 10 7 6 6 6 9 9 5 4 6 3 2 4 4 6 5 7 9 9 11 11 11 11 11 11 11 8 14 28 28 10 24 25 21 13 12 12 11 14 22 24 22 17 16 17 14 13 14 16 16 16
5 5 2 2 3 3 3 3 2 4 6 7 4 4 4 5 7 6 6 6 8 10 23 25 19 8 11 11 21 26 28 27 23 23 31 30 33 31 23 15 14 28 28 23 22 23 18 17 16 13 12 12 13 13
5 5 9 8 3 2 5 2 5 7 5 4 3 6 9 9 12 10 8 15 21 24 23 25 27 26 22 23 25 26 25 26 30 31 26 29 34 36 37 35 37 39 37 30 25 24 23 22 19 14 12 12 11 10
4 3 5 6 2 3 7 7 7 6 5 5 8 12 13 13 15 12 17 26 27 22 12 12 23 25 26 28 29 28 26 23 9 15 17 11 11 16 26 24 25 24 24 23 17 14 16 15 13 11 10 10 7 7
6 6 5 4 7 8 7 7 4 7 7 10 10 12 12 14 22 29 24 21 10 8 21 25 27 20 15 13 14 21 26 26 23 15 12 12 12 24 25 24 23 21 18 15 11 8 6 7 6 3 5 5 5 5
4 5 3 5 8 11 13 10 1 3 3 6 8 10 15 14 17 25 24 25 23 22 17 14 20 32 20 14 13 13 13 24 27 31 34 35 31 28 31 31 28 22 16 12 11 14 13 11 8 7 7 6 6 8
5 9 7 6 10 11 1 3 4 6 9 9 11 11 13 5 16 11 30 28 23 13 27 29 15 18 34 31 29 29 31 31 34 33 31 32 34 34 33 30 24 18 17 15 16 17 16 12 11 11 9 8 9 9
1 1 4 7 3 3 2 3 2 4 2 8 13 15 16 15 19 9 19 27 31 28 27 32 32 31 33 35 33 33 32 30 32 34 36 36 35 31 27 23 20 20 19 18 19 18 17 14 12 11 11 13 12 13

GFSWCAN_925_spd_120.txt.gz
Wind_Speed
13 13 11 10 9 9 8 6 6 7 8 10 11 11 12 13 13 11 4 9 4 1 4 3 3 4 2 2 2 2 3 1 2 2 3 3 4 4 2 4 6 8 7 4 4 4 10 8 5 8 6 3 3 4
16 15 15 13 12 12 10 8 8 8 9 9 8 10 10 10 12 11 3 7 8 4 4 4 8 9 5 6 4 2 3 2 4 2 2 1 3 2 3 3 2 3 7 5 11 8 6 7 6 8 3 5 5 5
15 13 14 13 11 10 10 9 9 9 8 7 8 8 9 10 10 9 8 8 4 2 4 3 2 2 4 13 12 3 2 2 2 2 2 2 4 3 3 5 3 4 6 5 1 10 19 15 12 9 7 13 11 8
16 15 13 12 11 10 9 9 9 8 8 7 10 9 8 9 10 10 7 6 3 1 1 4 2 2 2 3 8 10 3 2 4 3 2 2 2 3 3 5 4 6 2 4 10 18 16 15 11 14 12 10 8 8
12 13 12 11 11 11 10 10 9 9 9 9 10 10 10 9 10 11 11 9 7 3 2 4 9 3 3 3 4 4 5 2 2 1 2 3 2 1 3 3 8 6 7 5 7 8 8 13 8 6 9 8 9 9
8 8 8 8 8 8 9 9 9 9 10 10 11 10 8 7 8 4 3 4 6 6 2 3 2 1 2 1 4 4 4 2 2 3 3 3 3 1 3 4 6 6 5 8 11 10 10 16 10 7 12 17 12 9
7 7 9 8 7 7 6 7 7 7 9 9 10 8 8 7 5 4 2 2 6 5 1 4 4 1 2 3 3 3 2 1 2 2 3 3 2 2 3 6 3 4 6 12 13 9 15 10 9 12 9 11 12 10
7 7 8 8 7 6 5 6 6 6 7 7 8 10 11 8 7 7 8 8 8 2 1 2 4 3 1 1 2 1 2 1 1 1 1 2 1 2 5 8 9 10 10 16 14 10 13 14 17 17 8 7 8 8
10 10 9 7 6 5 5 5 5 5 5 5 6 6 3 3 3 2 2 4 10 2 2 3 3 3 1 1 1 1 1 2 1 2 2 3 2 6 8 4 10 15 8 15 18 17 15 11 13 13 9 8 7 8
10 12 10 9 8 6 6 5 6 5 4 2 3 1 2 1 1 1 1 2 0 1 1 3 0 3 3 1 1 2 1 1 2 3 3 2 5 14 15 15 13 14 15 11 6 11 17 18 11 9 9 7 6 7
11 12 12 11 10 9 8 6 5 2 3 2 3 2 2 3 2 2 1 2 2 3 3 3 3 1 3 1 1 2 2 1 2 2 3 2 4 5 7 7 8 9 8 9 7 9 9 11 9 9 8 6 7 9
12 12 12 12 11 10 9 8 6 7 3 2 1 2 2 2 2 2 3 3 4 4 3 4 3 3 1 1 2 2 2 2 4 2 2 3 5 8 6 7 8 6 7 6 5 8 9 8 10 7 7 8 11 14
13 14 13 14 12 12 11 10 10 9 5 2 3 1 2 2 4 5 7 4 3 3 3 2 1 3 1 0 1 2 3 4 2 3 4 7 1 5 6 4 7 9 8 9 10 13 12 13 17 12 11 20 17 17
16 15 16 14 14 13 13 12 12 10 4 2 3 5 6 5 5 5 3 3 3 2 3 3 2 2 2 2 2 3 4 2 3 4 8 3 4 6 5 5 4 9 10 10 10 13 13 13 14 21 20 23 20 16
17 17 17 16 16 15 15 14 14 13 6 4 3 6 6 3 1 1 2 1 1 2 3 2 2 1 1 2 3 2 4 6 6 6 3 3 4 4 7 7 7 8 8 13 15 12 17 21 17 19 24 25 21 22
17 16 19 19 18 18 17 14 11 9 3 3 6 6 4 3 5 3 0 2 2 3 2 2 2 2 5 3 5 9 4 8 5 4 3 3 6 7 10 12 9 11 16 17 20 20 21 21 19 22 26 26 27 23
15 10 14 16 19 20 19 14 10 6 6 5 5 7 3 1 4 3 4 3 9 3 3 1 4 10 1 4 5 4 5 4 4 5 3 4 7 16 17 17 16 24 23 25 24 26 26 27 26 20 13 25 27 26
17 15 17 19 17 17 18 16 7 5 8 8 5 7 7 4 4 4 4 4 4 4 3 6 3 5 7 6 12 7 8 10 10 11 12 13 13 17 15 14 24 27 26 26 27 29 26 20 12 12 22 24 27 26
24 24 22 17 17 10 4 6 8 5 7 3 4 2 3 3 4 9 4 9 9 5 3 3 5 5 10 10 12 10 6 5 9 12 14 24 28 25 26 27 28 26 24 22 23 20 25 27 25 26 26 23 14 22
24 23 22 20 19 6 4 4 8 4 5 5 1 7 5 6 8 4 6 4 5 3 5 6 11 14 14 15 14 14 14 14 14 14 16 15 23 25 23 22 20 26 24 28 30 29 23 20 21 22 24 22 16 16
20 24 22 20 11 16 3 3 4 2 1 3 6 9 3 1 6 9 7 5 3 4 4 8 13 14 19 22 27 25 16 17 15 15 16 14 20 25 24 29 31 26 16 13 13 15 22 14 25 24 21 22 23 26
18 17 10 16 8 6 5 9 2 2 3 2 1 2 2 4 10 8 3 3 4 7 8 12 12 12 14 17 17 30 30 33 31 27 30 29 15 14 15 21 19 12 12 17 19 13 22 26 25 24 22 24 24 24
20 14 11 11 6 7 6 12 7 5 6 4 2 3 3 3 4 2 3 4 5 10 13 10 20 28 19 32 30 30 32 29 12 16 23 23 26 29 28 28 26 14 14 23 25 25 25 29 24 22 23 21 20 19
21 7 7 6 9 5 5 7 3 4 4 4 3 4 3 4 2 2 5 9 13 8 6 13 11 11 14 15 12 13 26 24 19 24 27 20 12 18 27 26 25 28 28 30 29 28 26 23 22 18 19 18 18 16
5 6 6 7 6 7 7 6 6 3 6 7 10 7 4 3 4 5 5 5 4 8 10 10 10 11 11 14 12 16 28 21 11 12 26 23 20 22 21 27 28 29 26 23 24 22 24 22 20 18 17 16 16 16
13 13 9 9 6 6 7 9 10 11 3 2 6 3 2 4 4 6 4 8 13 13 11 11 11 10 9 10 11 10 18 23 21 11 28 25 23 12 11 12 12 17 24 26 24 22 22 20 17 17 17 19 19 17
6 6 3 3 4 3 2 1 2 3 7 8 4 5 4 5 6 5 4 7 9 11 20 24 19 8 10 11 20 25 27 27 25 27 35 31 29 27 24 17 17 29 32 26 26 24 22 21 18 19 17 15 15 13
5 5 8 5 3 4 4 3 6 8 5 3 2 7 9 10 9 6 5 10 17 25 27 29 27 27 24 25 25 27 29 27 29 31 30 35 37 39 39 36 37 41 38 34 29 27 24 23 20 18 16 15 14 11
4 3 5 8 2 3 6 8 7 6 5 7 8 10 8 7 7 3 14 23 21 16 12 9 18 24 28 31 29 30 28 23 10 16 20 14 14 21 22 27 29 28 26 25 21 21 20 20 19 18 17 14 7 4
7 4 4 5 7 8 8 7 5 10 6 8 7 7 7 7 17 27 17 18 9 7 19 23 25 22 15 13 12 23 27 25 26 16 12 13 15 28 23 26 29 32 29 22 22 19 10 8 5 4 5 3 3 3
3 5 3 5 9 12 14 8 4 4 1 3 4 6 12 11 14 26 29 31 30 24 18 14 20 28 20 15 12 11 14 31 25 29 34 33 33 33 30 31 32 32 28 23 19 16 13 10 9 6 4 4 5 5
5 9 6 5 9 11 2 2 2 4 4 5 11 9 9 3 10 7 32 24 18 12 26 29 14 17 33 28 30 30 34 35 35 32 31 32 35 35 32 31 29 26 24 20 18 15 15 14 10 8 6 5 6 7
1 0 1 2 4 5 2 3 3 4 2 7 11 12 13 10 13 9 23 27 26 23 25 29 32 33 34 32 32 34 31 31 34 37 37 37 35 31 27 27 27 24 21 19 18 16 17 15 12 10 9 8 9 10

GFSWCAN_925_spd_123.txt.gz
Wind_Speed
17 15 13 12 11 10 8 7 7 7 8 10 11 10 11 12 15 15 5 13 7 2 4 3 2 2 1 2 3 3 3 1 2 3 3 3 3 3 2 3 5 7 6 4 4 4 9 6 5 6 4 3 3 4
21 17 15 15 15 13 12 11 10 8 7 7 8 9 8 10 10 10 3 12 13 4 4 4 7 6 3 2 3 1 2 1 4 3 1 2 3 2 4 3 2 3 6 5 10 8 4 5 6 6 3 5 8 9
22 19 17 17 16 14 13 12 11 10 8 6 6 8 8 8 8 8 7 9 6 3 5 3 2 3 2 9 8 1 2 1 1 1 3 2 5 4 3 5 2 4 4 4 0 6 14 12 11 10 13 13 14 14
22 20 17 16 16 14 12 11 11 10 8 7 8 7 9 9 8 8 5 6 2 1 1 5 2 1 1 1 4 7 2 2 4 2 1 2 3 3 3 3 4 5 3 4 7 15 8 7 4 6 8 10 11 11
25 22 20 16 13 11 11 11 11 10 9 8 9 10 10 9 8 9 10 8 4 2 2 5 8 2 1 1 3 3 3 2 1 1 1 3 2 1 2 1 4 5 6 5 6 4 5 13 19 19 16 17 10 11
19 18 16 14 12 10 10 9 10 11 9 8 8 8 7 6 6 3 2 2 4 5 1 4 2 2 3 5 7 5 3 1 2 3 3 3 3 2 2 3 6 5 3 4 4 9 12 18 17 10 7 18 19 16
13 12 10 9 9 8 8 7 7 8 8 7 6 5 5 4 4 2 1 2 2 3 1 4 4 2 3 1 3 3 3 1 2 2 2 1 2 2 2 4 4 4 6 9 8 5 8 7 12 19 16 17 21 19
9 9 8 7 7 8 7 6 6 6 5 5 4 3 4 2 4 3 4 4 5 2 2 2 4 2 3 1 1 1 2 1 1 1 1 2 1 1 4 8 6 7 9 11 8 4 9 13 16 13 13 10 10 9
7 8 8 8 8 7 6 6 4 4 3 2 3 2 2 2 2 1 2 3 8 1 2 3 2 3 1 1 1 1 0 2 1 2 3 3 2 5 7 5 7 6 4 9 13 11 10 7 10 9 8 9 6 7
11 10 9 9 8 7 6 4 3 3 2 2 0 3 1 2 1 1 1 1 1 1 2 3 2 3 3 1 1 1 1 2 2 3 2 3 4 12 9 9 8 9 7 5 5 14 16 18 14 12 9 9 7 9
10 10 9 9 8 8 6 4 2 5 4 2 1 1 2 2 1 1 1 2 2 3 3 2 4 2 3 1 1 1 1 1 2 3 3 2 4 4 4 5 4 6 7 7 7 10 9 10 10 13 16 14 13 14
10 9 9 9 9 8 7 6 6 4 2 3 2 2 2 2 1 2 3 2 4 4 2 3 4 3 1 1 2 2 2 1 5 1 1 3 5 6 5 5 4 4 7 7 9 8 14 15 17 14 12 14 19 23
11 11 10 9 9 9 8 6 6 5 5 2 2 2 1 1 3 5 6 4 3 3 3 2 2 3 1 1 1 2 3 4 1 2 4 6 2 3 2 4 6 9 13 11 10 15 16 16 22 17 18 23 24 22
13 12 11 11 10 10 10 9 9 9 3 2 3 4 5 4 5 5 4 3 3 2 3 3 2 1 1 2 2 3 3 2 3 3 7 2 5 3 4 3 6 13 10 10 8 15 15 17 20 23 23 25 23 21
13 14 14 12 12 12 12 12 12 11 4 3 3 5 6 4 1 2 2 1 2 2 2 2 2 2 1 1 3 2 3 6 4 5 3 3 2 2 5 7 9 10 9 9 13 9 15 18 18 24 27 29 29 27
14 12 15 14 15 15 13 11 10 8 2 2 5 4 3 1 3 1 2 2 3 3 1 2 2 2 4 4 5 7 4 7 5 3 3 3 6 6 8 11 9 16 23 24 24 22 24 23 24 27 31 30 29 30
14 7 12 13 16 16 16 14 9 5 5 5 5 4 3 3 4 3 4 4 9 3 3 2 5 11 0 3 4 4 5 4 4 4 3 6 9 16 14 17 25 26 25 26 27 27 27 30 28 22 16 30 29 29
12 15 15 13 10 12 14 17 6 5 8 5 4 4 8 3 3 3 4 3 4 3 3 6 2 3 4 5 9 8 9 11 11 12 12 15 13 21 24 17 26 26 25 26 25 30 29 24 16 16 26 28 26 24
22 20 15 11 13 8 5 5 7 4 7 2 2 1 4 3 4 6 4 9 7 4 4 2 4 4 7 6 11 13 11 9 11 13 11 23 26 24 27 27 27 24 24 24 24 22 28 31 28 30 28 26 19 23
21 19 17 16 16 6 3 3 7 3 4 3 1 3 3 4 5 3 6 6 5 3 5 6 10 12 10 12 11 10 11 12 11 13 15 14 23 25 23 23 23 29 28 28 29 31 26 26 29 26 24 22 18 19
16 19 16 16 9 15 3 3 3 2 2 2 2 2 3 2 3 5 5 3 2 4 8 7 11 13 24 26 27 24 18 18 14 14 14 13 21 25 26 30 30 27 21 19 13 16 26 20 29 29 26 25 25 25
10 11 10 12 8 5 4 7 3 1 2 2 2 1 2 2 4 4 3 4 4 11 7 10 12 14 14 18 20 29 32 36 30 23 28 27 13 12 12 25 22 13 18 21 22 15 26 31 28 27 27 27 27 25
11 10 6 8 5 6 6 10 6 5 5 4 3 3 3 3 5 1 3 5 5 8 15 15 21 31 20 30 24 28 33 18 10 18 22 23 25 26 24 26 25 19 14 23 28 26 26 32 31 28 28 27 24 22
14 7 6 6 9 5 4 7 4 3 3 5 4 6 5 4 2 2 6 9 13 11 6 14 16 13 13 11 11 14 25 20 19 21 26 20 10 17 26 28 26 27 29 30 28 29 28 27 27 25 24 23 22 19
6 7 6 6 6 6 7 6 6 4 8 7 7 6 4 3 4 5 4 9 13 11 12 12 12 11 11 13 11 15 27 20 10 11 26 23 22 24 22 28 28 30 28 25 24 24 25 25 23 21 22 20 20 18
8 9 9 7 4 6 7 6 8 8 4 4 9 4 2 4 6 7 8 17 14 13 13 11 10 9 9 11 12 10 21 25 22 9 27 24 21 16 13 14 14 25 23 26 25 22 23 22 22 21 20 22 22 20
5 7 4 3 3 2 2 1 0 3 6 7 4 4 4 6 9 6 6 5 8 16 24 27 21 10 11 12 21 27 32 31 26 27 33 29 31 30 27 19 17 35 36 33 29 24 22 23 23 21 20 21 18 17
6 5 8 6 5 4 8 6 6 7 5 4 2 7 7 8 8 7 6 15 22 30 27 30 28 26 25 29 31 29 27 31 30 29 31 32 36 34 32 35 35 38 38 35 33 28 25 25 23 21 19 18 18 15
6 3 4 6 4 4 6 6 6 6 5 6 10 14 12 8 11 9 16 25 26 21 12 11 22 31 31 32 30 28 27 24 7 13 19 13 15 21 22 27 28 29 29 30 29 25 24 25 26 23 19 17 15 8
6 5 4 4 7 8 9 8 7 12 7 8 8 7 9 9 20 30 25 24 13 8 20 22 25 24 15 13 12 23 28 27 26 17 12 15 19 24 24 27 27 29 31 29 27 25 21 19 15 13 8 7 5 2
3 4 2 5 10 14 16 8 2 3 2 5 7 10 15 14 18 29 28 31 27 26 22 17 23 28 21 15 13 13 16 28 29 36 40 37 35 31 31 29 29 31 30 30 28 25 22 17 14 12 6 5 4 3
4 8 6 5 12 10 0 3 3 4 8 6 13 10 12 4 14 13 32 25 23 13 27 29 14 16 34 31 32 31 34 32 26 24 26 32 34 33 36 35 33 31 31 30 25 22 18 16 14 10 8 7 5 5
1 1 2 2 4 4 2 3 3 4 2 7 10 11 12 10 13 8 12 20 26 25 25 29 30 32 35 33 32 31 28 31 34 33 35 36 36 34 31 31 30 31 30 28 25 20 15 14 14 11 10 9 8 8

GFSWCAN_925_spd_126.txt.gz
Wind_Speed
22 20 15 13 12 11 9 7 6 6 7 8 9 10 10 11 12 9 6 11 4 2 4 4 2 3 1 1 3 2 2 1 2 2 3 3 3 4 2 4 6 7 7 5 4 5 9 7 4 5 4 4 4 7
25 23 18 16 15 14 12 11 9 8 7 7 6 8 8 9 9 8 3 7 8 4 3 3 7 6 2 2 4 2 2 4 4 3 1 1 3 1 3 3 0 3 6 5 9 7 3 3 3 2 2 6 8 6
28 25 21 17 17 16 15 13 11 9 7 5 5 7 8 9 7 7 5 7 4 3 4 2 1 1 3 8 8 2 2 2 1 2 3 2 5 4 3 5 2 4 3 3 1 2 4 8 5 4 6 8 14 15
30 27 24 20 19 17 16 13 11 8 5 5 4 5 8 8 7 6 4 5 1 3 0 4 1 0 1 0 5 8 2 3 5 2 2 3 3 3 3 2 3 4 4 3 6 9 7 3 10 14 14 15 12 9
33 31 27 23 20 19 17 13 10 8 7 6 5 5 7 7 7 5 5 4 4 2 2 4 3 1 3 1 4 3 4 2 1 1 1 3 2 1 1 1 4 5 6 4 5 2 3 7 12 16 12 12 15 14
30 28 25 24 21 19 15 12 9 8 7 6 5 5 5 5 4 2 1 3 3 3 2 3 2 3 4 4 7 6 4 2 1 2 2 3 3 2 2 3 5 4 2 2 3 4 7 10 9 5 10 16 15 12
33 30 25 22 18 15 12 9 7 6 5 4 5 4 3 4 1 1 0 2 2 0 1 3 3 1 2 2 2 2 2 2 3 2 2 0 2 1 2 3 5 1 3 5 3 3 4 2 6 14 12 14 17 17
22 20 18 15 13 10 7 5 5 4 4 3 3 3 2 3 2 2 4 3 3 1 1 3 3 2 1 1 1 2 1 1 1 2 2 2 1 2 5 8 4 5 7 3 3 4 6 9 11 9 11 9 9 9
17 15 14 12 10 9 8 6 5 3 3 2 2 2 2 2 2 1 0 2 6 2 2 2 2 3 1 1 0 1 1 1 0 2 2 3 2 5 7 4 2 0 0 5 8 7 6 6 9 8 7 11 10 13
13 11 11 11 12 10 9 8 6 5 4 4 2 2 1 1 2 1 1 1 1 1 2 3 1 3 3 1 1 2 1 1 1 3 2 2 4 10 5 7 3 4 5 6 6 13 12 16 15 16 13 11 8 10
7 9 10 10 10 10 10 8 7 8 8 3 2 1 3 3 1 0 1 2 2 3 2 2 4 1 2 1 2 2 1 1 1 2 2 2 4 4 7 7 4 1 3 6 7 8 9 9 11 12 13 14 17 15
10 9 9 9 9 9 9 9 11 6 5 6 6 4 2 0 1 1 3 2 4 4 2 2 2 2 0 1 0 1 1 1 4 2 2 3 3 5 4 2 3 1 5 8 12 11 17 17 19 14 13 15 19 24
10 10 9 9 9 9 9 9 10 10 10 5 3 2 2 1 3 5 5 4 2 2 3 2 2 1 1 0 1 1 3 3 1 1 3 5 3 4 4 3 7 12 12 11 13 18 21 22 25 22 22 25 26 23
10 9 9 9 9 10 10 9 10 11 2 2 3 4 5 4 5 5 4 4 3 2 2 1 1 2 1 1 2 3 2 2 2 2 6 3 4 4 2 3 5 12 10 9 12 19 19 21 23 25 25 28 25 25
10 9 9 9 9 9 10 11 13 10 3 3 3 5 6 4 0 1 3 1 2 2 2 2 1 2 1 1 3 1 3 5 5 5 3 3 5 5 7 7 9 10 10 10 15 13 16 20 19 22 28 28 27 30
10 8 10 11 12 12 10 11 10 6 1 2 4 3 2 2 3 2 3 3 3 3 1 1 2 2 5 3 4 7 3 6 4 3 3 3 5 7 8 10 10 19 22 21 23 24 25 26 26 30 32 32 32 29
11 6 11 12 14 13 16 12 5 4 4 5 4 4 3 2 4 3 4 4 8 3 3 2 4 9 1 3 4 4 5 4 4 4 4 7 8 11 13 18 20 21 22 26 26 27 28 32 30 24 18 33 32 31
8 13 11 9 10 12 13 8 6 5 7 4 3 3 4 2 2 3 4 3 4 3 3 6 3 4 6 6 4 4 4 4 6 9 11 11 13 21 22 15 21 21 24 27 28 30 30 26 20 18 30 32 30 31
17 15 11 12 12 7 6 4 6 4 6 3 1 2 3 3 4 5 3 7 8 3 4 3 4 4 6 4 7 11 10 9 10 11 9 19 23 21 21 22 22 22 22 23 26 25 29 33 31 32 31 28 22 28
17 17 15 13 15 5 3 3 4 2 3 3 1 2 3 3 6 4 8 5 5 2 4 5 11 11 7 10 8 11 11 9 7 9 12 13 24 19 17 19 21 25 24 27 26 28 27 27 29 29 27 26 24 24
14 18 16 16 13 11 3 3 2 2 2 3 2 3 3 2 2 3 3 3 4 5 7 7 10 12 20 23 29 25 20 20 12 12 15 13 19 19 22 28 27 24 20 19 10 19 24 21 29 30 28 26 28 29
8 11 12 14 7 7 4 10 3 2 3 2 1 2 2 2 4 5 3 5 4 7 6 10 11 12 14 18 22 35 32 31 31 27 29 24 11 12 12 22 18 9 17 19 20 17 23 28 30 28 25 27 30 29
12 13 5 5 3 4 5 6 4 4 4 4 3 2 4 3 5 2 2 4 6 10 16 16 22 32 22 36 31 28 31 28 12 18 22 20 25 23 21 27 25 16 11 23 24 25 27 28 28 28 28 28 27 28
12 7 5 5 6 5 2 5 4 2 3 3 3 5 5 4 1 1 5 11 14 14 12 17 17 13 15 15 12 14 29 27 20 23 22 21 11 15 23 25 26 24 27 29 27 30 29 25 26 26 26 26 25 24
3 5 5 5 4 5 8 5 5 4 6 4 6 5 5 2 3 3 5 13 14 12 14 12 11 11 12 13 12 19 32 20 12 10 23 25 21 19 20 25 27 27 26 25 24 25 27 26 24 24 25 23 24 24
8 8 9 9 6 6 7 6 9 10 4 5 8 3 1 3 4 6 9 17 13 11 12 12 11 11 11 13 13 12 24 26 21 8 25 25 21 15 10 11 13 22 24 29 25 22 24 24 25 25 24 26 25 22
7 8 4 3 3 3 1 1 1 3 6 7 4 3 5 6 8 8 11 11 9 19 26 25 22 11 12 13 22 28 32 28 24 25 27 26 26 28 26 17 17 33 36 31 27 26 25 26 26 24 22 23 19 19
6 6 9 6 6 3 5 3 6 7 6 4 4 6 7 9 9 10 7 19 24 27 27 28 28 27 24 26 30 29 29 31 27 25 25 29 36 37 35 36 37 41 38 34 32 29 25 25 26 24 22 20 21 20
5 2 4 6 4 4 6 8 7 6 6 4 7 13 11 9 12 11 23 27 34 26 13 13 21 28 30 33 30 28 26 23 4 9 14 13 14 25 30 30 32 30 31 33 31 29 28 28 28 24 24 21 21 20
6 4 3 3 7 7 8 8 9 12 3 9 9 11 13 15 30 36 30 28 19 12 26 28 28 24 15 13 10 19 27 30 29 18 13 15 19 33 26 22 25 27 28 29 30 32 30 26 24 22 19 17 14 13
3 4 2 4 9 12 15 11 10 10 7 9 11 12 18 18 25 36 30 34 33 31 21 15 22 28 22 15 12 13 15 31 27 33 38 35 34 33 28 29 33 30 29 29 29 29 28 26 21 18 15 14 12 8
4 8 5 5 13 12 1 2 3 5 11 11 15 10 13 8 12 10 19 24 21 12 28 30 13 16 32 30 30 29 31 30 30 27 27 31 34 34 32 34 33 29 28 30 27 27 26 22 20 18 13 13 10 8
0 1 1 3 4 5 3 4 3 4 2 6 11 11 12 8 9 4 15 21 22 21 22 26 28 30 31 31 29 30 30 32 34 32 32 34 37 35 32 32 29 28 28 28 26 25 22 18 18 15 12 11 10 8

GFSWCAN_925_spd_129.txt.gz
Wind_Speed
24 24 21 18 16 14 12 10 7 5 4 4 5 6 7 8 10 6 5 10 4 1 4 5 3 4 1 1 3 4 3 1 2 2 3 3 3 3 2 4 6 7 7 5 5 5 8 4 4 2 2 5 5 8
27 26 24 20 17 16 14 13 10 8 6 6 3 2 5 6 6 5 2 5 6 3 3 3 4 4 2 1 4 1 2 3 4 3 1 1 3 1 3 3 1 3 6 5 9 7 3 2 2 2 3 7 7 7
30 29 25 23 20 18 17 15 14 11 9 7 5 3 2 4 5 5 3 6 2 3 3 2 1 1 4 8 6 3 2 2 3 3 3 2 4 4 3 5 2 4 4 3 1 1 4 6 2 2 4 6 10 9
32 31 29 25 23 19 18 18 16 14 10 8 6 4 3 4 3 2 2 4 1 4 1 3 1 1 1 1 5 8 2 4 5 2 2 2 3 4 3 2 4 4 5 4 5 5 5 3 2 4 9 7 7 10
32 32 29 27 26 23 21 19 18 15 11 9 6 5 3 3 3 1 2 3 4 2 3 3 1 2 4 3 5 4 6 3 2 2 2 4 2 2 1 1 4 6 6 4 4 4 3 6 7 6 7 8 11 8
31 31 30 29 28 26 21 20 18 14 11 8 7 4 2 2 2 2 1 3 4 3 2 3 1 2 5 5 6 5 3 2 1 2 3 3 1 3 3 3 6 3 3 3 2 3 5 7 6 4 7 11 11 11
33 32 32 32 30 28 25 20 15 12 10 9 6 5 4 3 3 1 2 2 3 1 2 4 3 1 2 3 3 3 2 1 2 1 2 1 2 3 2 3 3 4 3 1 0 2 1 1 4 9 9 15 19 20
30 29 30 33 33 28 22 18 16 13 10 8 7 5 5 6 5 2 2 2 3 0 2 2 3 2 1 2 2 1 2 2 1 1 0 1 2 1 4 4 3 1 5 6 5 3 3 6 8 8 13 14 9 9
24 33 33 30 26 24 22 19 16 13 11 10 9 8 6 3 3 2 2 3 4 1 2 2 2 3 2 1 2 2 1 1 0 1 2 2 2 5 5 4 4 3 3 1 3 4 5 5 8 9 8 8 7 11
21 20 21 23 23 19 15 16 12 10 12 10 7 3 2 3 5 4 1 1 1 1 1 2 1 2 3 1 1 2 0 2 2 3 1 2 4 4 6 5 4 3 3 2 3 6 3 6 7 7 7 7 8 11
22 20 20 18 19 17 16 15 15 16 11 3 3 2 5 6 3 1 2 1 2 3 3 2 3 2 2 1 1 3 1 1 2 1 2 2 3 4 5 6 7 5 5 3 5 8 10 9 10 12 14 17 21 23
18 18 16 15 14 15 15 15 17 9 6 6 9 7 3 2 1 2 3 2 4 4 2 2 2 2 0 0 2 3 1 2 3 2 2 3 4 3 2 6 4 3 7 9 14 12 18 18 20 17 16 19 23 27
14 15 15 16 16 15 14 15 13 10 15 8 4 2 2 2 3 6 6 4 3 3 3 2 2 1 1 1 1 2 3 3 3 3 4 4 3 3 5 2 5 10 12 12 13 15 18 20 22 22 23 28 28 27
15 15 16 17 16 16 15 15 15 15 4 2 3 4 4 3 4 4 4 3 3 3 3 2 1 2 1 2 2 3 2 3 3 4 6 3 7 7 6 3 3 7 9 10 13 19 18 19 22 25 25 29 26 26
15 16 15 14 16 16 15 15 15 9 3 3 4 5 5 3 1 3 3 1 3 3 3 2 1 2 1 2 2 2 4 5 5 5 3 3 6 6 5 5 8 8 7 5 14 13 18 21 19 25 30 30 30 31
14 12 13 15 15 15 16 17 10 3 3 1 2 2 1 2 3 2 3 3 2 3 2 1 2 2 5 3 4 7 4 6 4 3 3 2 5 7 7 9 11 15 14 14 18 20 21 21 23 28 34 34 32 31
14 5 12 14 14 16 18 9 3 2 4 4 3 2 3 1 4 3 4 3 8 3 3 3 4 9 1 3 4 4 5 4 3 3 3 6 8 11 9 11 14 15 15 19 23 23 23 28 28 25 18 35 34 34
6 9 9 13 16 19 6 5 5 4 5 3 3 4 3 3 2 2 3 2 3 3 3 5 3 4 5 4 4 4 4 3 4 6 8 9 7 14 18 13 18 19 20 22 22 25 26 23 18 18 27 32 33 33
13 10 11 13 17 6 4 3 4 3 6 3 1 2 2 2 3 5 3 9 6 3 2 1 4 4 6 4 5 7 6 5 10 11 9 12 17 19 21 22 21 22 21 21 23 21 26 28 25 27 29 27 23 28
12 11 12 15 15 4 3 2 3 1 2 3 1 2 3 3 2 3 5 3 3 2 4 5 7 10 8 11 8 11 12 13 11 12 14 12 22 22 18 18 15 21 20 23 23 24 21 23 24 25 25 22 25 25
11 13 13 16 8 5 3 2 3 3 2 3 1 3 3 2 1 3 3 4 3 3 4 7 11 13 20 24 30 28 21 20 14 14 13 12 22 23 19 19 24 19 16 17 13 19 21 19 27 26 25 24 28 29
6 11 9 11 5 7 4 10 3 2 3 1 1 1 2 2 4 4 2 2 4 8 7 12 13 14 15 18 23 34 34 33 30 26 28 27 13 12 12 23 17 9 16 18 20 17 23 28 26 26 25 29 30 29
11 9 4 4 4 3 3 3 3 3 2 3 2 1 4 3 4 1 2 4 6 11 20 17 24 31 20 33 33 31 31 26 13 20 23 23 23 25 23 26 22 17 11 22 23 22 23 29 29 28 28 29 28 27
9 7 4 4 4 3 1 3 1 2 2 2 3 4 4 4 1 2 4 6 14 11 8 15 16 11 15 17 13 14 30 32 22 25 28 21 11 18 20 24 25 24 27 27 23 21 24 28 29 27 27 26 27 24
5 6 4 5 3 4 6 5 5 3 5 5 4 4 4 2 2 3 7 12 14 11 10 8 9 10 11 14 14 21 34 25 13 11 28 22 22 19 17 22 24 27 26 23 21 20 22 25 25 26 26 23 23 25
6 6 9 8 4 7 7 6 8 8 4 5 7 3 2 3 3 7 5 8 9 8 7 7 8 8 9 12 12 12 26 27 22 9 29 23 23 17 10 9 9 16 22 25 26 19 20 23 26 27 24 25 26 25
5 7 4 2 3 3 1 1 1 3 6 7 4 3 4 5 8 6 5 5 5 14 22 24 20 11 11 14 24 28 32 29 23 25 30 27 26 29 27 15 12 28 31 27 25 26 24 25 25 24 22 22 22 22
5 5 8 7 4 1 4 2 5 7 6 4 4 5 6 8 11 11 9 20 26 29 31 31 29 27 25 27 32 32 30 29 26 27 29 32 34 37 37 39 41 43 43 34 34 31 29 25 25 23 20 21 25 23
4 3 4 6 4 4 7 7 6 6 4 5 6 10 10 10 13 11 27 28 28 26 15 17 27 29 31 33 31 32 30 25 8 12 12 12 10 20 32 28 31 34 32 30 31 29 28 28 28 24 24 23 26 24
5 4 4 4 7 9 8 8 6 9 4 7 5 9 13 15 30 34 31 29 22 15 26 27 28 25 17 15 13 23 26 26 26 17 12 14 18 30 28 27 26 25 25 25 27 29 30 25 23 22 20 21 20 16
3 3 1 4 7 10 14 10 9 9 4 9 10 10 18 18 26 40 31 30 28 28 24 17 23 26 19 14 9 11 13 23 28 32 33 32 31 30 29 28 28 28 29 27 25 26 28 25 22 20 15 16 15 14
4 8 6 5 9 8 1 3 4 6 11 11 16 11 14 10 12 8 22 19 16 8 23 24 13 16 27 24 24 26 30 31 29 28 27 28 30 32 30 29 28 28 26 25 25 26 23 21 21 16 16 16 14 12
1 1 1 3 4 5 3 2 3 4 2 4 6 8 9 6 7 4 13 19 19 18 18 21 23 24 26 28 29 28 27 28 30 29 27 28 29 28 25 26 26 23 22 24 25 25 21 18 17 16 16 14 11 8